KB0UOA Weather Reports


time (UTC)temp
C
wind
direction
speed
KPH
gust
KPH
rain 1hr
cm
rain 24hr
cm
rain mn
cm
humidity
%
barometer
mb
20260510192704 21 74 6.4 24.1 0.00 0.48 0.41 35 1022.0
20260510192604 21 74 6.4 24.1 0.00 0.48 0.41 36 1022.0
20260510192504 21 74 6.4 24.1 0.00 0.48 0.41 37 1022.0
20260510192404 21 75 6.4 24.1 0.00 0.48 0.41 37 1022.0
20260510192306 21 76 6.4 24.1 0.00 0.48 0.41 35 1022.0
20260510192204 21 79 6.4 24.1 0.00 0.48 0.41 35 1022.1
20260510191905 21 82 6.4 19.3 0.00 0.48 0.41 36 1022.1
20260510191805 21 79 8.0 19.3 0.00 0.48 0.41 35 1022.1
20260510191704 20 76 6.4 19.3 0.00 0.48 0.41 36 1022.1
20260510191605 20 75 6.4 19.3 0.00 0.48 0.41 37 1022.1
20260510191505 20 71 6.4 19.3 0.00 0.48 0.41 38 1022.0
20260510191405 20 65 8.0 19.3 0.00 0.48 0.41 37 1022.1
20260510191305 20 67 8.0 19.3 0.00 0.48 0.41 37 1022.1
20260510191205 20 66 6.4 19.3 0.00 0.48 0.41 36 1022.1
20260510191105 20 65 6.4 17.7 0.00 0.48 0.41 35 1022.1
20260510191005 20 56 6.4 17.7 0.00 0.48 0.41 36 1022.2
20260510190905 20 40 8.0 17.7 0.00 0.48 0.41 37 1022.2
20260510190805 20 37 6.4 17.7 0.00 0.48 0.41 37 1022.2
20260510190705 20 30 8.0 17.7 0.00 0.48 0.41 36 1022.2
20260510190505 20 32 6.4 17.7 0.00 0.48 0.41 35 1022.2
20260510190405 20 28 6.4 17.7 0.00 0.48 0.41 36 1022.2
20260510190305 20 15 6.4 17.7 0.00 0.48 0.41 36 1022.3
20260510190204 20 8 6.4 17.7 0.00 0.48 0.41 36 1022.2
20260510190104 20 5 4.8 17.7 0.00 0.48 0.41 35 1022.2
20260510190005 20 13 4.8 17.7 0.00 0.48 0.41 35 1022.3
20260510185805 20 53 4.8 14.5 0.00 0.48 0.41 36 1022.3
20260510185705 20 71 4.8 12.9 0.00 0.48 0.41 36 1022.3
20260510185405 20 83 3.2 12.9 0.00 0.48 0.41 37 1022.3
20260510185306 20 86 3.2 12.9 0.00 0.48 0.41 37 1022.3
20260510185205 20 83 4.8 16.1 0.00 0.48 0.41 36 1022.3
20260510185105 20 82 4.8 16.1 0.00 0.48 0.41 36 1022.2
20260510185005 20 76 4.8 16.1 0.00 0.48 0.41 36 1022.2
20260510184904 20 68 4.8 16.1 0.00 0.48 0.41 37 1022.2
20260510184804 20 68 4.8 16.1 0.00 0.48 0.41 36 1022.2
20260510184704 20 65 4.8 16.1 0.00 0.48 0.41 38 1022.2
20260510184604 20 63 4.8 16.1 0.00 0.48 0.41 37 1022.2
20260510184404 19 63 6.4 16.1 0.00 0.48 0.41 36 1022.1
20260510184305 19 64 6.4 16.1 0.00 0.48 0.41 35 1022.2
20260510184204 19 62 4.8 14.5 0.00 0.48 0.41 36 1022.2
20260510184104 19 62 4.8 14.5 0.00 0.48 0.41 37 1022.1
20260510184004 19 66 4.8 14.5 0.00 0.48 0.41 37 1022.2
20260510183904 19 70 4.8 14.5 0.00 0.48 0.41 37 1022.1
20260510183804 19 69 4.8 14.5 0.00 0.48 0.41 36 1022.2
20260510183704 19 70 6.4 14.5 0.00 0.48 0.41 37 1022.2
20260510183604 19 73 6.4 19.3 0.00 0.48 0.41 36 1022.3
20260510183404 19 78 6.4 19.3 0.00 0.48 0.41 36 1022.3
20260510183204 19 81 6.4 19.3 0.00 0.48 0.41 36 1022.3
20260510183104 18 83 6.4 19.3 0.00 0.48 0.41 38 1022.2
20260510183004 18 84 8.0 19.3 0.00 0.48 0.41 36 1022.3
20260510182904 18 84 8.0 19.3 0.00 0.48 0.41 37 1022.3
20260510182804 18 83 8.0 19.3 0.00 0.48 0.41 37 1022.3
20260510182704 18 83 6.4 19.3 0.00 0.48 0.41 36 1022.3
20260510182504 18 79 6.4 19.3 0.00 0.48 0.41 37 1022.4
20260510182404 18 79 6.4 16.1 0.00 0.48 0.41 38 1022.4
20260510182306 18 81 6.4 16.1 0.00 0.48 0.41 36 1022.5
20260510182204 18 75 6.4 17.7 0.00 0.48 0.41 37 1022.4
20260510182004 18 66 6.4 17.7 0.00 0.48 0.41 39 1022.5
20260510181905 18 65 6.4 17.7 0.00 0.48 0.41 37 1022.5
20260510181804 18 61 8.0 17.7 0.00 0.48 0.41 37 1022.5
20260510181704 18 56 8.0 19.3 0.00 0.48 0.41 37 1022.6
20260510181504 18 56 8.0 19.3 0.00 0.48 0.41 37 1022.6
20260510181404 18 47 8.0 19.3 0.00 0.48 0.41 37 1022.6
20260510181305 18 39 8.0 19.3 0.00 0.48 0.41 35 1022.6
20260510181005 18 39 6.4 19.3 0.00 0.48 0.41 37 1022.6
20260510180804 18 43 6.4 19.3 0.00 0.48 0.41 39 1022.5
20260510180604 18 45 6.4 14.5 0.00 0.48 0.41 39 1022.5
20260510180404 18 58 6.4 16.1 0.00 0.48 0.41 39 1022.5
20260510180304 18 66 6.4 17.7 0.00 0.48 0.41 39 1022.5
20260510180204 18 67 6.4 17.7 0.00 0.48 0.41 38 1022.5
20260510180105 18 63 6.4 17.7 0.00 0.48 0.41 38 1022.5
20260510175904 17 64 8.0 17.7 0.00 0.48 0.41 40 1022.5
20260510175804 17 65 8.0 27.4 0.00 0.48 0.41 38 1022.6
20260510175704 17 67 8.0 27.4 0.00 0.48 0.41 40 1022.5
20260510175504 17 73 6.4 27.4 0.00 0.48 0.41 39 1022.6
20260510175405 17 74 6.4 27.4 0.00 0.48 0.41 40 1022.6
20260510175306 17 77 8.0 27.4 0.00 0.48 0.41 40 1022.6
20260510175205 17 76 8.0 27.4 0.00 0.48 0.41 40 1022.6
20260510174904 17 78 6.4 27.4 0.00 0.48 0.41 38 1022.6
20260510174804 17 79 6.4 22.5 0.00 0.48 0.41 40 1022.6
20260510174704 17 80 6.4 22.5 0.00 0.48 0.41 42 1022.6
20260510174604 17 76 6.4 22.5 0.00 0.48 0.41 41 1022.6
20260510174504 17 72 6.4 22.5 0.00 0.48 0.41 40 1022.6
20260510174404 17 70 6.4 22.5 0.00 0.48 0.41 39 1022.6
20260510174304 17 68 6.4 22.5 0.00 0.48 0.41 41 1022.6
20260510174204 17 63 4.8 22.5 0.00 0.48 0.41 39 1022.7
20260510174104 17 61 4.8 14.5 0.00 0.48 0.41 41 1022.7
20260510174004 17 64 4.8 14.5 0.00 0.48 0.41 42 1022.6
20260510173904 17 62 4.8 14.5 0.00 0.48 0.41 41 1022.7
20260510173804 17 59 4.8 14.5 0.00 0.48 0.41 41 1022.6
20260510173704 17 57 4.8 14.5 0.00 0.48 0.41 41 1022.6
20260510173604 17 66 4.8 19.3 0.00 0.48 0.41 41 1022.6
20260510173504 17 71 4.8 19.3 0.00 0.48 0.41 41 1022.6
20260510173404 17 75 4.8 19.3 0.00 0.48 0.41 41 1022.6
20260510173304 17 76 4.8 19.3 0.00 0.48 0.41 43 1022.6
20260510173104 17 75 4.8 19.3 0.00 0.48 0.41 44 1022.6
20260510173004 17 72 4.8 19.3 0.00 0.48 0.41 42 1022.5
20260510172904 17 70 6.4 19.3 0.00 0.48 0.41 42 1022.5
20260510172804 17 74 6.4 22.5 0.00 0.48 0.41 41 1022.5
20260510172704 17 74 6.4 22.5 0.00 0.48 0.41 43 1022.5
20260510172604 17 71 4.8 22.5 0.00 0.48 0.41 41 1022.5
20260510172504 17 70 4.8 22.5 0.00 0.48 0.41 41 1022.5
20260510172404 17 68 4.8 22.5 0.00 0.48 0.41 41 1022.4
20260510172306 17 64 4.8 22.5 0.00 0.48 0.41 40 1022.5
20260510172104 17 70 4.8 22.5 0.00 0.48 0.41 41 1022.4
20260510171904 17 78 3.2 22.5 0.00 0.48 0.41 41 1022.4
20260510171704 17 68 3.2 12.9 0.00 0.48 0.41 43 1022.5
20260510171604 17 75 3.2 12.9 0.00 0.48 0.41 45 1022.5
20260510171404 17 65 3.2 16.1 0.00 0.48 0.41 43 1022.6
20260510171304 17 64 4.8 16.1 0.00 0.48 0.41 45 1022.6
20260510171204 17 64 4.8 16.1 0.00 0.48 0.41 45 1022.6
20260510171104 17 64 4.8 16.1 0.00 0.48 0.41 43 1022.6
20260510171004 17 62 4.8 16.1 0.00 0.48 0.41 44 1022.6
20260510170804 16 65 6.4 16.1 0.00 0.48 0.41 44 1022.6
20260510170704 16 65 6.4 16.1 0.00 0.48 0.41 43 1022.5
20260510170604 16 62 4.8 16.1 0.00 0.48 0.41 44 1022.6
20260510170404 16 65 4.8 14.5 0.00 0.48 0.41 44 1022.5
20260510170304 16 63 4.8 12.9 0.00 0.48 0.41 45 1022.5
20260510170204 16 64 4.8 14.5 0.00 0.48 0.41 44 1022.5
20260510170004 16 65 4.8 16.1 0.00 0.48 0.41 44 1022.7
20260510165904 16 65 4.8 16.1 0.00 0.48 0.41 44 1022.7
20260510165704 16 65 4.8 16.1 0.00 0.48 0.41 49 1022.8
20260510165604 16 65 4.8 16.1 0.00 0.48 0.41 50 1022.8
20260510165306 16 74 4.8 16.1 0.00 0.48 0.41 47 1022.7
20260510165204 16 76 4.8 16.1 0.00 0.48 0.41 49 1022.8
20260510165004 15 79 4.8 16.1 0.00 0.48 0.41 48 1022.7
20260510164904 15 77 4.8 16.1 0.00 0.48 0.41 48 1022.7
20260510164704 15 69 4.8 16.1 0.00 0.48 0.41 48 1022.6
20260510164604 15 76 4.8 17.7 0.00 0.48 0.41 50 1022.7
20260510164504 15 72 4.8 17.7 0.00 0.48 0.41 50 1022.7
20260510164404 15 69 4.8 17.7 0.00 0.48 0.41 50 1022.6
20260510164304 15 65 4.8 17.7 0.00 0.48 0.41 50 1022.6
20260510164004 15 49 4.8 17.7 0.00 0.48 0.41 51 1022.6
20260510163904 15 51 4.8 17.7 0.00 0.48 0.41 51 1022.6
20260510163805 15 49 4.8 17.7 0.00 0.48 0.41 52 1022.6
20260510163705 15 45 4.8 19.3 0.00 0.48 0.41 51 1022.6
20260510163605 15 27 4.8 19.3 0.00 0.48 0.41 52 1022.6
20260510163505 15 26 4.8 19.3 0.00 0.48 0.41 54 1022.6
20260510163405 15 26 4.8 19.3 0.00 0.48 0.41 53 1022.6
20260510163305 15 23 4.8 19.3 0.00 0.48 0.41 55 1022.7
20260510163204 15 22 6.4 19.3 0.00 0.48 0.41 55 1022.7
20260510163105 15 20 6.4 19.3 0.00 0.48 0.41 55 1022.8
20260510162905 14 18 4.8 19.3 0.00 0.48 0.41 53 1022.9
20260510162805 14 17 4.8 19.3 0.00 0.48 0.41 53 1022.9
20260510162604 14 25 3.2 12.9 0.00 0.48 0.41 57 1022.8
20260510162505 14 27 3.2 12.9 0.00 0.48 0.41 56 1022.9
20260510162405 14 26 3.2 12.9 0.00 0.48 0.41 56 1022.8
20260510162204 14 34 3.2 11.3 0.00 0.48 0.41 57 1022.8
20260510162104 14 36 3.2 11.3 0.00 0.48 0.41 59 1022.8
20260510161904 14 29 3.2 14.5 0.00 0.48 0.41 59 1022.8
20260510161804 13 30 4.8 14.5 0.00 0.48 0.41 58 1022.8
20260510161704 13 32 4.8 14.5 0.00 0.48 0.41 59 1022.8
20260510161605 13 31 4.8 14.5 0.00 0.48 0.41 59 1022.8
20260510161504 13 37 4.8 14.5 0.00 0.48 0.41 58 1022.8
20260510161404 13 41 4.8 14.5 0.00 0.48 0.41 60 1022.8
20260510161304 13 43 4.8 14.5 0.00 0.48 0.41 58 1022.8
20260510161204 13 49 4.8 14.5 0.00 0.48 0.41 58 1022.8
20260510161104 13 56 4.8 14.5 0.00 0.48 0.41 56 1022.7
20260510160804 13 76 3.2 11.3 0.00 0.48 0.41 60 1022.6
20260510160504 13 71 3.2 11.3 0.00 0.48 0.41 60 1022.6
20260510160404 13 67 3.2 9.7 0.00 0.48 0.41 61 1022.5
20260510160205 13 40 3.2 9.7 0.00 0.48 0.41 62 1022.6
20260510160105 13 33 3.2 9.7 0.00 0.48 0.41 64 1022.7
20260510160005 13 31 3.2 9.7 0.00 0.48 0.41 63 1022.6
20260510155905 13 31 3.2 9.7 0.00 0.48 0.41 62 1022.7
20260510155805 13 29 3.2 9.7 0.00 0.48 0.41 65 1022.7
20260510155704 13 30 3.2 8.0 0.00 0.48 0.41 63 1022.8
20260510155605 13 29 3.2 8.0 0.00 0.48 0.41 63 1022.7
20260510155405 13 33 3.2 8.0 0.00 0.48 0.41 64 1022.7
20260510155306 12 47 3.2 8.0 0.00 0.48 0.41 64 1022.6
20260510155204 12 53 3.2 9.7 0.00 0.48 0.41 65 1022.4
20260510155105 12 50 3.2 14.5 0.00 0.48 0.41 66 1022.4
20260510155004 12 52 4.8 17.7 0.00 0.48 0.41 66 1022.4
20260510154804 12 45 4.8 17.7 0.00 0.48 0.41 68 1022.3
20260510154705 12 45 4.8 17.7 0.00 0.48 0.41 67 1022.3
20260510154605 12 40 4.8 17.7 0.00 0.48 0.41 68 1022.4
20260510154505 12 32 4.8 17.7 0.00 0.48 0.41 68 1022.4
20260510154405 12 28 4.8 17.7 0.00 0.48 0.41 67 1022.4
20260510154305 12 18 4.8 17.7 0.00 0.48 0.41 67 1022.4
20260510154205 12 9 4.8 17.7 0.00 0.48 0.41 68 1022.5
20260510154105 12 356 4.8 17.7 0.00 0.48 0.41 70 1022.5
20260510154005 12 343 4.8 11.3 0.00 0.48 0.41 71 1022.5
20260510153905 12 337 4.8 11.3 0.00 0.48 0.41 71 1022.6
20260510153805 12 338 4.8 11.3 0.00 0.48 0.41 72 1022.6
20260510153705 12 334 4.8 11.3 0.00 0.48 0.41 72 1022.6
20260510153604 12 336 4.8 11.3 0.03 0.48 0.41 73 1022.6
20260510153505 12 340 4.8 11.3 0.03 0.48 0.41 73 1022.6
20260510153405 12 343 4.8 11.3 0.03 0.48 0.41 72 1022.6
20260510153305 12 344 4.8 11.3 0.03 0.48 0.41 72 1022.5
20260510153205 12 359 4.8 11.3 0.03 0.48 0.41 72 1022.4
20260510153104 12 21 3.2 11.3 0.03 0.48 0.41 72 1022.2
20260510153005 12 52 3.2 9.7 0.03 0.48 0.41 73 1022.0
20260510152805 12 78 3.2 11.3 0.03 0.48 0.41 73 1021.7
20260510152605 12 88 3.2 11.3 0.03 0.48 0.41 73 1021.5
20260510152404 12 88 3.2 11.3 0.03 0.48 0.41 73 1021.5
20260510152307 12 88 3.2 11.3 0.03 0.48 0.41 72 1021.6
20260510152104 12 80 3.2 11.3 0.03 0.48 0.41 72 1021.7
20260510151904 12 73 3.2 9.7 0.03 0.48 0.41 72 1021.9
20260510151804 12 70 3.2 11.3 0.03 0.48 0.41 74 1021.9
20260510151405 12 73 3.2 14.5 0.03 0.48 0.41 75 1022.1
20260510151305 12 73 3.2 14.5 0.03 0.48 0.41 74 1022.1
20260510151205 12 74 3.2 14.5 0.03 0.48 0.41 74 1022.2
20260510151105 12 77 3.2 14.5 0.03 0.48 0.41 73 1022.1
20260510151005 12 78 3.2 14.5 0.03 0.48 0.41 73 1022.1
20260510150905 12 79 3.2 14.5 0.03 0.48 0.41 74 1022.2
20260510150805 12 79 1.6 14.5 0.03 0.48 0.41 74 1022.1
20260510150705 12 79 1.6 14.5 0.03 0.48 0.41 74 1022.2
20260510150604 12 74 1.6 8.0 0.03 0.48 0.41 77 1022.2
20260510150504 12 64 1.6 8.0 0.03 0.48 0.41 77 1022.3
20260510150404 12 52 3.2 11.3 0.03 0.48 0.41 77 1022.2
20260510150304 12 38 3.2 11.3 0.03 0.48 0.41 78 1022.2
20260510150105 12 36 3.2 11.3 0.03 0.48 0.41 78 1022.3
20260510145905 12 38 3.2 11.3 0.03 0.48 0.41 77 1022.4
20260510145705 12 36 3.2 11.3 0.03 0.48 0.41 77 1022.5
20260510145605 12 32 3.2 11.3 0.03 0.48 0.41 77 1022.5
20260510145505 12 26 3.2 11.3 0.03 0.48 0.41 77 1022.5
20260510145404 12 23 3.2 9.7 0.03 0.48 0.41 77 1022.4
20260510145306 12 28 1.6 6.4 0.03 0.48 0.41 77 1022.4
20260510145204 12 31 1.6 6.4 0.03 0.48 0.41 78 1022.2
20260510145104 12 31 1.6 6.4 0.03 0.48 0.41 78 1022.2
20260510145004 12 28 1.6 6.4 0.03 0.48 0.41 78 1022.3
20260510144904 12 24 1.6 6.4 0.03 0.48 0.41 79 1022.3
20260510144804 12 19 1.6 8.0 0.03 0.48 0.41 78 1022.3
20260510144704 12 18 1.6 8.0 0.03 0.48 0.41 78 1022.4
20260510144604 12 14 1.6 8.0 0.03 0.48 0.41 78 1022.3
20260510144404 12 40 1.6 8.0 0.03 0.48 0.41 78 1022.4
20260510144305 12 42 1.6 8.0 0.03 0.48 0.41 77 1022.4
20260510144204 12 43 1.6 8.0 0.03 0.48 0.41 77 1022.4
20260510144104 12 44 1.6 8.0 0.03 0.48 0.41 77 1022.4
20260510144004 12 48 1.6 8.0 0.03 0.48 0.41 77 1022.4
20260510143904 12 52 1.6 8.0 0.03 0.48 0.41 77 1022.5
20260510143804 12 69 1.6 8.0 0.03 0.48 0.41 78 1022.4
20260510143705 12 78 1.6 9.7 0.00 0.46 0.38 77 1022.3
20260510143604 12 85 1.6 9.7 0.00 0.46 0.38 77 1022.3
20260510143505 12 84 1.6 9.7 0.00 0.46 0.38 77 1022.3
20260510143404 12 86 1.6 9.7 0.00 0.46 0.38 78 1022.2
20260510143305 12 86 1.6 9.7 0.00 0.46 0.38 77 1022.1
20260510143205 12 87 3.2 9.7 0.00 0.46 0.38 77 1022.2
20260510143105 12 86 3.2 9.7 0.00 0.46 0.38 77 1022.2
20260510142905 12 84 1.6 9.7 0.00 0.46 0.38 76 1022.3
20260510142805 12 84 1.6 9.7 0.00 0.46 0.38 77 1022.4
20260510142705 12 84 1.6 8.0 0.03 0.46 0.38 77 1022.4
20260510142605 12 84 1.6 8.0 0.03 0.46 0.38 77 1022.5
20260510142505 12 84 1.6 8.0 0.03 0.46 0.38 76 1022.5
20260510142306 12 80 1.6 8.0 0.03 0.46 0.38 77 1022.6
20260510142205 12 75 1.6 4.8 0.05 0.46 0.38 77 1022.6
20260510142105 12 77 1.6 4.8 0.05 0.46 0.38 77 1022.7
20260510142005 12 74 1.6 6.4 0.05 0.46 0.38 77 1022.7
20260510141905 12 76 1.6 6.4 0.08 0.46 0.38 77 1022.8
20260510141805 12 76 1.6 6.4 0.08 0.46 0.38 77 1022.8
20260510141705 12 76 1.6 8.0 0.08 0.46 0.38 77 1022.8
20260510141605 12 79 1.6 9.7 0.08 0.46 0.38 77 1022.9
20260510141505 12 80 1.6 9.7 0.10 0.46 0.38 77 1022.8
20260510141405 12 81 1.6 9.7 0.10 0.46 0.38 77 1022.8
20260510141305 12 81 1.6 9.7 0.10 0.46 0.38 77 1022.8
20260510141205 12 82 1.6 9.7 0.13 0.46 0.38 77 1022.8
20260510141005 12 86 1.6 9.7 0.13 0.46 0.38 77 1022.8
20260510140804 12 84 1.6 9.7 0.15 0.46 0.38 77 1022.8
20260510140704 12 82 1.6 9.7 0.15 0.46 0.38 77 1022.9
20260510140604 12 81 1.6 11.3 0.18 0.46 0.38 78 1022.9
20260510140504 12 80 1.6 14.5 0.18 0.46 0.38 77 1022.9
20260510140404 12 79 3.2 14.5 0.20 0.46 0.38 77 1022.9
20260510140304 12 76 3.2 14.5 0.20 0.46 0.38 77 1022.9
20260510140104 12 62 3.2 14.5 0.25 0.46 0.38 78 1022.8
20260510140004 12 59 3.2 14.5 0.25 0.46 0.38 77 1022.8
20260510135904 12 56 3.2 14.5 0.28 0.46 0.38 78 1022.7
20260510135804 12 55 3.2 14.5 0.28 0.46 0.38 77 1022.7
20260510135604 12 53 3.2 14.5 0.30 0.46 0.38 78 1022.7
20260510135404 12 47 3.2 9.7 0.30 0.46 0.38 79 1022.7
20260510135306 12 46 1.6 9.7 0.30 0.46 0.38 79 1022.6
20260510135205 12 46 1.6 9.7 0.30 0.46 0.38 80 1022.6
20260510135105 12 59 1.6 9.7 0.30 0.46 0.38 80 1022.6
20260510135005 12 65 1.6 9.7 0.33 0.46 0.38 80 1022.5
20260510134905 12 71 1.6 9.7 0.33 0.46 0.38 81 1022.5
20260510134805 12 73 1.6 9.7 0.33 0.46 0.38 81 1022.4
20260510134705 12 76 1.6 9.7 0.33 0.46 0.38 81 1022.4
20260510134605 12 72 1.6 9.7 0.33 0.46 0.38 81 1022.4
20260510134505 12 70 1.6 9.7 0.33 0.46 0.38 82 1022.4
20260510134405 12 81 1.6 4.8 0.36 0.46 0.38 82 1022.5
20260510134204 12 80 0.0 4.8 0.36 0.46 0.38 82 1022.5
20260510134105 12 75 1.6 4.8 0.36 0.46 0.38 83 1022.5
20260510133904 12 72 1.6 4.8 0.38 0.46 0.38 82 1022.5
20260510133805 12 71 1.6 6.4 0.38 0.46 0.38 82 1022.6
20260510133705 12 71 1.6 6.4 0.38 0.46 0.38 82 1022.6
20260510133605 12 81 1.6 6.4 0.38 0.46 0.38 82 1022.5
20260510133505 12 80 1.6 6.4 0.38 0.46 0.38 82 1022.5
20260510133405 12 75 1.6 6.4 0.38 0.46 0.38 82 1022.5
20260510133205 12 75 1.6 6.4 0.38 0.46 0.38 81 1022.5
20260510133104 12 75 1.6 6.4 0.38 0.46 0.38 82 1022.5
20260510133004 12 72 1.6 6.4 0.38 0.46 0.38 81 1022.5
20260510132905 12 71 0.0 6.4 0.38 0.46 0.38 82 1022.5
20260510132705 12 76 0.0 6.4 0.36 0.43 0.36 82 1022.5
20260510132605 12 67 0.0 4.8 0.36 0.43 0.36 83 1022.5
20260510132505 12 72 0.0 4.8 0.36 0.43 0.36 82 1022.5
20260510132405 12 81 0.0 4.8 0.36 0.43 0.36 83 1022.5
20260510132306 12 83 0.0 3.2 0.33 0.41 0.33 83 1022.5
20260510132105 12 90 0.0 3.2 0.33 0.41 0.33 83 1022.5
20260510132005 12 94 0.0 3.2 0.30 0.38 0.30 82 1022.5
20260510131804 12 93 0.0 3.2 0.30 0.38 0.30 82 1022.6
20260510131704 12 89 0.0 3.2 0.30 0.38 0.30 82 1022.5
20260510131604 12 84 0.0 3.2 0.28 0.36 0.28 81 1022.6
20260510131504 12 82 0.0 3.2 0.28 0.36 0.28 81 1022.5
20260510131404 12 65 1.6 6.4 0.28 0.36 0.28 81 1022.6
20260510131305 12 52 1.6 6.4 0.28 0.36 0.28 80 1022.5
20260510131205 12 38 1.6 6.4 0.25 0.33 0.25 80 1022.5
20260510131105 12 32 1.6 6.4 0.25 0.33 0.25 80 1022.5
20260510131005 12 25 1.6 6.4 0.25 0.33 0.25 80 1022.5
20260510130905 12 18 1.6 6.4 0.23 0.30 0.23 79 1022.6
20260510130705 12 13 1.6 6.4 0.23 0.30 0.23 79 1022.7
20260510130505 12 11 1.6 6.4 0.20 0.28 0.20 77 1022.8
20260510130405 13 12 1.6 6.4 0.18 0.25 0.18 77 1022.8
20260510130305 13 11 1.6 6.4 0.18 0.25 0.18 76 1022.8
20260510130105 13 5 0.0 6.4 0.13 0.20 0.13 75 1022.7
20260510130004 13 13 0.0 3.2 0.13 0.20 0.13 75 1022.6
20260510125904 13 56 0.0 4.8 0.10 0.18 0.10 74 1022.5
20260510125804 13 85 0.0 4.8 0.10 0.18 0.10 73 1022.4
20260510125704 13 85 0.0 4.8 0.10 0.18 0.10 73 1022.3
20260510125604 13 85 0.0 4.8 0.08 0.15 0.08 73 1022.3
20260510125504 13 85 0.0 4.8 0.08 0.15 0.08 73 1022.2
20260510125405 13 85 0.0 4.8 0.08 0.15 0.08 73 1022.2
20260510125307 13 87 0.0 4.8 0.08 0.15 0.08 72 1022.2
20260510125205 13 87 1.6 6.4 0.08 0.15 0.08 70 1022.1
20260510125105 13 83 1.6 6.4 0.05 0.13 0.05 69 1022.1
20260510125005 13 83 1.6 6.4 0.05 0.13 0.05 69 1022.0
20260510124905 14 83 1.6 6.4 0.05 0.13 0.05 69 1021.9
20260510124805 14 80 1.6 6.4 0.05 0.13 0.05 69 1021.9
20260510124705 14 73 1.6 6.4 0.05 0.13 0.05 69 1021.9
20260510124605 14 72 1.6 6.4 0.05 0.13 0.05 67 1022.0
20260510124405 14 67 1.6 8.0 0.03 0.10 0.03 65 1022.0
20260510124304 14 60 1.6 8.0 0.03 0.10 0.03 64 1021.9
20260510124205 14 55 1.6 8.0 0.03 0.10 0.03 64 1021.9
20260510124105 15 43 1.6 9.7 0.03 0.10 0.03 65 1021.9
20260510123905 15 41 3.2 9.7 0.00 0.08 0.00 63 1021.8
20260510123805 15 44 3.2 9.7 0.00 0.08 0.00 63 1021.9
20260510123705 15 50 3.2 9.7 0.00 0.08 0.00 62 1021.8
20260510123605 15 52 3.2 9.7 0.00 0.08 0.00 62 1021.8
20260510123404 15 59 3.2 9.7 0.00 0.08 0.00 61 1021.7
20260510123304 15 68 3.2 12.9 0.00 0.08 0.00 62 1021.6
20260510123205 15 73 3.2 12.9 0.00 0.08 0.00 62 1021.5
20260510123104 15 86 3.2 12.9 0.00 0.08 0.00 62 1021.4
20260510122904 15 90 3.2 12.9 0.00 0.08 0.00 61 1021.1
20260510122804 15 90 3.2 12.9 0.00 0.08 0.00 61 1021.0
20260510122704 15 93 3.2 12.9 0.00 0.08 0.00 62 1020.9
20260510122604 15 90 4.8 12.9 0.00 0.08 0.00 61 1020.9
20260510122504 15 86 4.8 14.5 0.00 0.08 0.00 61 1020.8
20260510122404 15 84 4.8 14.5 0.00 0.08 0.00 60 1020.7
20260510122306 15 82 4.8 14.5 0.00 0.08 0.00 60 1020.7
20260510122204 15 83 4.8 14.5 0.00 0.08 0.00 60 1020.7
20260510122004 15 77 4.8 14.5 0.00 0.08 0.00 59 1020.6
20260510121905 15 74 3.2 14.5 0.00 0.08 0.00 59 1020.6
20260510121805 15 72 3.2 14.5 0.00 0.08 0.00 59 1020.6
20260510121704 15 71 3.2 14.5 0.00 0.08 0.00 59 1020.5
20260510121604 15 73 3.2 14.5 0.00 0.08 0.00 59 1020.5
20260510121405 15 77 1.6 8.0 0.00 0.08 0.00 60 1020.4
20260510121304 15 79 1.6 8.0 0.00 0.08 0.00 60 1020.4
20260510121205 15 77 1.6 8.0 0.00 0.08 0.00 60 1020.4
20260510121105 15 68 1.6 9.7 0.00 0.08 0.00 60 1020.3
20260510121005 15 69 1.6 9.7 0.00 0.08 0.00 60 1020.2
20260510120905 15 73 1.6 9.7 0.00 0.08 0.00 60 1020.2
20260510120804 15 75 3.2 9.7 0.00 0.08 0.00 59 1020.1
20260510120705 15 69 3.2 14.5 0.00 0.08 0.00 60 1020.1
20260510120605 15 65 3.2 14.5 0.00 0.08 0.00 60 1020.0
20260510120505 15 62 3.2 14.5 0.00 0.08 0.00 60 1019.9
20260510120405 15 62 3.2 14.5 0.00 0.08 0.00 60 1019.9
20260510120204 15 64 3.2 14.5 0.00 0.08 0.00 60 1019.8
20260510120104 15 65 3.2 14.5 0.00 0.08 0.00 60 1019.7
20260510120004 15 61 4.8 14.5 0.00 0.08 0.00 60 1019.7
20260510115804 15 59 4.8 14.5 0.00 0.08 0.00 60 1019.5
20260510115704 15 62 4.8 16.1 0.00 0.08 0.00 60 1019.5
20260510115604 15 64 4.8 20.9 0.00 0.08 0.00 60 1019.5
20260510115504 15 66 4.8 20.9 0.00 0.08 0.00 60 1019.4
20260510115306 15 63 6.4 20.9 0.00 0.08 0.00 61 1019.2
20260510115204 15 64 6.4 20.9 0.00 0.08 0.00 60 1019.1
20260510115104 15 68 6.4 20.9 0.00 0.08 0.00 60 1019.0
20260510114905 15 73 6.4 25.7 0.00 0.08 0.00 60 1018.9
20260510114804 15 75 6.4 25.7 0.00 0.08 0.00 61 1018.8
20260510114604 15 76 6.4 25.7 0.00 0.08 0.00 61 1018.8
20260510114505 15 77 6.4 25.7 0.00 0.08 0.00 61 1018.8
20260510114405 15 76 6.4 25.7 0.00 0.08 0.00 61 1018.8
20260510114305 15 79 6.4 25.7 0.00 0.08 0.00 61 1018.7
20260510114205 15 79 8.0 25.7 0.00 0.08 0.00 61 1018.7
20260510114105 15 76 6.4 25.7 0.00 0.08 0.00 61 1018.6
20260510114005 15 77 4.8 22.5 0.00 0.08 0.00 61 1018.6
20260510113804 15 70 4.8 16.1 0.00 0.08 0.00 62 1018.6
20260510113604 15 65 4.8 16.1 0.00 0.08 0.00 62 1018.5
20260510113505 15 61 4.8 16.1 0.00 0.08 0.00 63 1018.5
20260510113405 15 56 4.8 16.1 0.00 0.08 0.00 63 1018.4
20260510113305 15 49 4.8 16.1 0.00 0.08 0.00 63 1018.4
20260510113205 15 44 4.8 17.7 0.00 0.08 0.00 63 1018.4
20260510113105 15 47 4.8 17.7 0.00 0.08 0.00 63 1018.4
20260510113005 15 46 6.4 17.7 0.00 0.08 0.00 63 1018.3
20260510112905 15 47 4.8 17.7 0.00 0.08 0.00 63 1018.3
20260510112805 15 48 6.4 17.7 0.00 0.08 0.00 63 1018.3
20260510112704 15 46 4.8 17.7 0.00 0.08 0.00 63 1018.2
20260510112605 15 48 4.8 17.7 0.00 0.08 0.00 63 1018.2
20260510112405 15 50 4.8 17.7 0.00 0.08 0.00 64 1018.1
20260510112306 15 51 4.8 17.7 0.00 0.08 0.00 64 1018.1
20260510112105 15 49 4.8 17.7 0.00 0.08 0.00 64 1018.0
20260510111904 15 45 4.8 17.7 0.00 0.08 0.00 64 1018.0
20260510111804 15 40 4.8 17.7 0.00 0.08 0.00 64 1017.9
20260510111704 15 41 4.8 17.7 0.00 0.08 0.00 64 1017.9
20260510111604 15 38 4.8 17.7 0.00 0.08 0.00 64 1017.9
20260510111504 15 41 4.8 17.7 0.00 0.08 0.00 64 1017.9
20260510111404 15 40 4.8 17.7 0.00 0.08 0.00 64 1017.9
20260510111204 15 38 4.8 17.7 0.00 0.08 0.00 64 1017.9
20260510111104 15 37 4.8 17.7 0.00 0.08 0.00 64 1017.9
20260510111004 15 38 4.8 17.7 0.00 0.08 0.00 64 1017.9
20260510110904 15 42 4.8 16.1 0.00 0.08 0.00 64 1017.9
20260510110804 15 47 4.8 16.1 0.00 0.08 0.00 64 1017.9
20260510110704 15 44 4.8 16.1 0.00 0.08 0.00 64 1017.8
20260510110604 15 47 4.8 16.1 0.00 0.08 0.00 64 1017.9
20260510110504 15 43 4.8 16.1 0.00 0.08 0.00 64 1017.9
20260510110404 15 42 4.8 16.1 0.00 0.08 0.00 64 1017.9
20260510110304 15 39 4.8 16.1 0.00 0.08 0.00 64 1017.8
20260510110204 15 41 4.8 16.1 0.00 0.08 0.00 64 1017.9
20260510110104 15 31 4.8 17.7 0.00 0.08 0.00 64 1017.8
20260510110005 15 31 4.8 17.7 0.00 0.08 0.00 64 1017.8
20260510105804 15 22 4.8 17.7 0.00 0.08 0.00 63 1017.7
20260510105704 15 21 4.8 17.7 0.00 0.08 0.00 63 1017.7
20260510105604 15 18 4.8 17.7 0.00 0.08 0.00 63 1017.6
20260510105404 15 12 4.8 17.7 0.00 0.08 0.00 63 1017.6
20260510105204 15 9 4.8 17.7 0.00 0.08 0.00 63 1017.6
20260510105104 15 17 4.8 17.7 0.00 0.08 0.00 63 1017.7
20260510105004 15 12 4.8 17.7 0.00 0.08 0.00 63 1017.7
20260510104904 15 12 4.8 17.7 0.00 0.08 0.00 62 1017.7
20260510104804 15 17 4.8 16.1 0.00 0.08 0.00 62 1017.7
20260510104704 15 16 4.8 16.1 0.00 0.08 0.00 62 1017.7
20260510104604 15 17 4.8 16.1 0.00 0.08 0.00 62 1017.8
20260510104504 15 22 4.8 14.5 0.00 0.08 0.00 62 1017.8
20260510104404 15 22 4.8 14.5 0.00 0.08 0.00 62 1017.8
20260510104304 15 23 4.8 14.5 0.00 0.08 0.00 62 1017.8
20260510104204 15 28 4.8 14.5 0.00 0.08 0.00 62 1017.8
20260510104104 16 27 3.2 17.7 0.00 0.08 0.00 62 1017.8
20260510103904 16 33 4.8 17.7 0.00 0.08 0.00 62 1017.7
20260510103804 16 27 4.8 17.7 0.00 0.08 0.00 62 1017.7
20260510103704 16 24 4.8 17.7 0.00 0.08 0.00 62 1017.6
20260510103604 16 23 4.8 17.7 0.00 0.08 0.00 62 1017.6
20260510103504 16 21 4.8 17.7 0.00 0.08 0.00 62 1017.5
20260510103404 16 17 6.4 17.7 0.00 0.08 0.00 62 1017.4
20260510103304 16 13 6.4 17.7 0.00 0.08 0.00 62 1017.4
20260510103204 16 14 6.4 17.7 0.00 0.08 0.00 61 1017.4
20260510103104 16 12 6.4 16.1 0.00 0.08 0.00 61 1017.4
20260510103004 16 8 6.4 16.1 0.00 0.08 0.00 61 1017.4
20260510102904 16 7 6.4 16.1 0.00 0.08 0.00 61 1017.4
20260510102804 16 9 6.4 16.1 0.00 0.08 0.00 61 1017.4
20260510102704 16 7 6.4 16.1 0.00 0.08 0.00 61 1017.3
20260510102604 16 9 6.4 16.1 0.00 0.08 0.00 60 1017.4
20260510102504 16 10 6.4 16.1 0.00 0.08 0.00 60 1017.4
20260510102404 16 10 6.4 16.1 0.00 0.08 0.00 60 1017.4
20260510102306 16 8 6.4 16.1 0.00 0.08 0.00 60 1017.4
20260510102204 16 4 6.4 16.1 0.00 0.08 0.00 60 1017.4
20260510102104 16 6 4.8 16.1 0.00 0.08 0.00 60 1017.4
20260510102005 16 10 4.8 16.1 0.00 0.08 0.00 60 1017.3
20260510101905 16 12 6.4 16.1 0.00 0.08 0.00 60 1017.3
20260510101805 16 14 6.4 16.1 0.00 0.08 0.00 59 1017.3
20260510101705 16 17 6.4 16.1 0.00 0.08 0.00 60 1017.3
20260510101605 16 8 6.4 14.5 0.00 0.08 0.00 59 1017.2
20260510101505 16 6 6.4 16.1 0.00 0.08 0.00 59 1017.2
20260510101305 16 14 4.8 16.1 0.00 0.08 0.00 59 1017.2
20260510101205 16 14 4.8 16.1 0.00 0.08 0.00 59 1017.2
20260510101105 16 13 4.8 16.1 0.00 0.08 0.00 59 1017.2
20260510101005 16 14 4.8 16.1 0.00 0.08 0.00 59 1017.2
20260510100905 16 12 4.8 16.1 0.00 0.08 0.00 59 1017.2
20260510100705 16 10 4.8 16.1 0.00 0.08 0.00 59 1017.1
20260510100505 16 27 3.2 16.1 0.00 0.08 0.00 59 1017.2
20260510100405 16 29 3.2 16.1 0.00 0.08 0.00 59 1017.2
20260510100305 16 27 3.2 16.1 0.00 0.08 0.00 59 1017.2
20260510100105 16 30 4.8 16.1 0.00 0.08 0.00 59 1017.1
20260510100005 16 28 4.8 16.1 0.00 0.08 0.00 59 1017.1
20260510095905 16 30 4.8 16.1 0.00 0.08 0.00 59 1017.1
20260510095804 16 26 4.8 16.1 0.00 0.08 0.00 59 1017.1
20260510095705 16 30 4.8 16.1 0.00 0.08 0.00 59 1017.1
20260510095604 16 28 4.8 14.5 0.00 0.08 0.00 59 1017.1
20260510095504 16 29 4.8 14.5 0.00 0.08 0.00 59 1017.1
20260510095404 16 25 4.8 14.5 0.00 0.08 0.00 59 1017.1
20260510095204 16 24 4.8 17.7 0.00 0.08 0.00 59 1017.0
20260510095005 16 26 4.8 17.7 0.00 0.08 0.00 59 1016.9
20260510094904 16 28 4.8 17.7 0.00 0.08 0.00 59 1016.9
20260510094805 16 34 4.8 17.7 0.00 0.08 0.00 59 1016.9
20260510094705 16 30 4.8 17.7 0.00 0.08 0.00 59 1016.9
20260510094605 16 30 4.8 17.7 0.00 0.08 0.00 59 1016.9
20260510094505 16 25 4.8 17.7 0.00 0.08 0.00 59 1016.9
20260510094405 16 32 4.8 17.7 0.00 0.08 0.00 59 1016.9
20260510094305 16 32 4.8 17.7 0.00 0.08 0.00 59 1016.9
20260510094205 16 33 4.8 14.5 0.00 0.08 0.00 59 1016.8
20260510094105 16 35 4.8 14.5 0.00 0.08 0.00 59 1016.7
20260510094005 16 33 4.8 14.5 0.00 0.08 0.00 59 1016.8
20260510093905 16 32 4.8 19.3 0.00 0.08 0.00 59 1016.7
20260510093805 16 33 4.8 19.3 0.00 0.08 0.00 59 1016.7
20260510093705 16 36 4.8 19.3 0.00 0.08 0.00 59 1016.7
20260510093605 16 42 4.8 19.3 0.00 0.08 0.00 59 1016.7
20260510093504 16 46 4.8 19.3 0.00 0.08 0.00 59 1016.7
20260510093405 16 45 4.8 19.3 0.00 0.08 0.00 59 1016.7
20260510093305 16 49 4.8 19.3 0.00 0.08 0.00 59 1016.6
20260510093204 16 52 4.8 19.3 0.00 0.08 0.00 59 1016.6
20260510093005 16 59 4.8 19.3 0.00 0.08 0.00 58 1016.5
20260510092904 16 64 4.8 16.1 0.00 0.08 0.00 58 1016.4
20260510092804 16 62 4.8 16.1 0.00 0.08 0.00 58 1016.4
20260510092704 16 66 3.2 14.5 0.00 0.08 0.00 58 1016.3
20260510092605 16 65 3.2 14.5 0.00 0.08 0.00 59 1016.3
20260510092505 16 67 3.2 14.5 0.00 0.08 0.00 59 1016.2
20260510092306 16 63 4.8 14.5 0.00 0.08 0.00 58 1016.2
20260510092204 16 63 4.8 14.5 0.00 0.08 0.00 58 1016.1
20260510092005 16 48 4.8 19.3 0.00 0.08 0.00 58 1016.1
20260510091905 16 49 4.8 19.3 0.00 0.08 0.00 58 1016.2
20260510091804 16 46 4.8 19.3 0.00 0.08 0.00 59 1016.2
20260510091704 16 43 4.8 19.3 0.00 0.08 0.00 58 1016.2
20260510091604 16 41 4.8 19.3 0.00 0.08 0.00 58 1016.3
20260510091504 16 41 4.8 19.3 0.00 0.08 0.00 58 1016.3
20260510091404 16 44 4.8 19.3 0.00 0.08 0.00 58 1016.4
20260510091304 16 44 6.4 19.3 0.00 0.08 0.00 58 1016.4
20260510091204 16 39 6.4 19.3 0.00 0.08 0.00 58 1016.5
20260510091104 16 42 6.4 19.3 0.00 0.08 0.00 58 1016.4
20260510091004 16 40 6.4 19.3 0.00 0.08 0.00 58 1016.4
20260510090904 16 35 6.4 19.3 0.00 0.08 0.00 58 1016.5
20260510090804 16 35 4.8 19.3 0.00 0.08 0.00 58 1016.4
20260510090504 16 40 4.8 19.3 0.00 0.08 0.00 58 1016.4
20260510090404 16 37 6.4 19.3 0.00 0.08 0.00 58 1016.4
20260510090304 16 35 4.8 19.3 0.00 0.08 0.00 58 1016.4
20260510090204 16 38 4.8 17.7 0.00 0.08 0.00 58 1016.4
20260510090104 16 39 4.8 17.7 0.00 0.08 0.00 58 1016.4
20260510090004 16 45 4.8 12.9 0.00 0.08 0.00 58 1016.3
20260510085904 16 47 4.8 12.9 0.00 0.08 0.00 58 1016.3
20260510085804 16 46 4.8 12.9 0.00 0.08 0.00 58 1016.2
20260510085704 16 44 4.8 12.9 0.00 0.08 0.00 59 1016.2
20260510085604 16 40 4.8 12.9 0.00 0.08 0.00 59 1016.1
20260510085404 16 39 4.8 12.9 0.00 0.08 0.00 59 1016.1
20260510085104 16 38 3.2 11.3 0.00 0.08 0.00 59 1016.1
20260510085004 16 32 3.2 11.3 0.00 0.08 0.00 59 1016.2
20260510084904 16 37 3.2 11.3 0.00 0.08 0.00 59 1016.2
20260510084804 16 34 3.2 11.3 0.00 0.08 0.00 60 1016.2
20260510084704 16 38 3.2 11.3 0.00 0.08 0.00 60 1016.3
20260510084604 16 47 3.2 9.7 0.00 0.08 0.00 60 1016.2
20260510084504 16 44 3.2 9.7 0.00 0.08 0.00 60 1016.2
20260510084404 16 45 3.2 9.7 0.00 0.08 0.00 60 1016.2
20260510084304 16 43 3.2 11.3 0.00 0.08 0.00 60 1016.2
20260510084204 16 39 3.2 11.3 0.00 0.08 0.00 60 1016.2
20260510084104 16 42 3.2 11.3 0.00 0.08 0.00 60 1016.2
20260510084004 16 51 3.2 11.3 0.00 0.08 0.00 60 1016.2
20260510083804 16 46 3.2 11.3 0.00 0.08 0.00 61 1016.1
20260510083704 16 41 3.2 11.3 0.00 0.08 0.00 61 1016.1
20260510083604 16 38 3.2 11.3 0.00 0.08 0.00 61 1016.2
20260510083504 16 39 3.2 11.3 0.00 0.08 0.00 61 1016.2
20260510083404 16 41 3.2 11.3 0.00 0.08 0.00 61 1016.1
20260510083204 16 46 3.2 8.0 0.00 0.08 0.00 61 1016.1
20260510083104 16 48 3.2 8.0 0.00 0.08 0.00 61 1016.1
20260510083004 16 43 3.2 8.0 0.00 0.08 0.00 61 1016.1
20260510082904 16 45 1.6 8.0 0.00 0.08 0.00 62 1016.1
20260510082704 16 58 1.6 8.0 0.00 0.08 0.00 62 1016.0
20260510082504 16 61 1.6 8.0 0.00 0.08 0.00 62 1016.1
20260510082404 16 57 1.6 8.0 0.00 0.08 0.00 62 1016.0
20260510082306 16 55 1.6 9.7 0.00 0.08 0.00 62 1016.0
20260510082004 16 53 1.6 9.7 0.00 0.08 0.00 62 1016.0
20260510081905 16 49 1.6 14.5 0.00 0.08 0.00 62 1016.0
20260510081805 16 51 1.6 14.5 0.00 0.08 0.00 62 1016.0
20260510081705 17 53 3.2 14.5 0.00 0.08 0.00 62 1016.0
20260510081605 17 54 3.2 14.5 0.00 0.08 0.00 62 1016.0
20260510081505 17 55 3.2 14.5 0.00 0.08 0.00 62 1016.0
20260510081405 17 53 3.2 14.5 0.00 0.08 0.00 62 1016.0
20260510081305 17 51 3.2 14.5 0.00 0.08 0.00 62 1016.0
20260510081205 17 56 3.2 14.5 0.00 0.08 0.00 62 1016.0
20260510081004 17 54 3.2 14.5 0.00 0.08 0.00 62 1016.0
20260510080804 17 57 3.2 14.5 0.00 0.08 0.00 62 1015.9
20260510080704 17 55 3.2 14.5 0.00 0.08 0.00 62 1016.0
20260510080604 17 54 3.2 14.5 0.00 0.08 0.00 62 1015.9
20260510080504 17 50 3.2 14.5 0.00 0.08 0.00 62 1015.9
20260510080404 17 49 3.2 14.5 0.00 0.08 0.00 62 1015.9
20260510080304 17 49 4.8 14.5 0.00 0.08 0.00 62 1015.9
20260510080104 17 41 3.2 16.1 0.00 0.08 0.00 62 1015.9
20260510075904 17 36 4.8 16.1 0.00 0.08 0.00 63 1016.0
20260510075804 17 34 4.8 16.1 0.00 0.08 0.00 63 1016.0
20260510075704 17 34 4.8 16.1 0.00 0.08 0.00 63 1016.0
20260510075504 17 30 4.8 16.1 0.00 0.08 0.00 63 1015.9
20260510075404 17 32 4.8 16.1 0.00 0.08 0.00 63 1015.9
20260510075306 17 32 3.2 16.1 0.00 0.08 0.00 63 1015.9
20260510075204 17 32 3.2 11.3 0.00 0.08 0.00 63 1015.8
20260510075104 17 31 3.2 11.3 0.00 0.08 0.00 63 1015.8
20260510075004 17 30 3.2 11.3 0.00 0.08 0.00 63 1015.8
20260510074904 17 36 3.2 11.3 0.00 0.08 0.00 63 1015.8
20260510074804 17 40 3.2 11.3 0.00 0.08 0.00 63 1015.8
20260510074704 17 40 3.2 11.3 0.00 0.08 0.00 63 1015.7
20260510074604 17 43 1.6 11.3 0.00 0.08 0.00 62 1015.7
20260510074504 17 53 1.6 11.3 0.00 0.08 0.00 62 1015.6
20260510074404 17 57 1.6 6.4 0.00 0.08 0.00 62 1015.5
20260510074304 17 62 1.6 6.4 0.00 0.08 0.00 62 1015.5
20260510074204 17 68 1.6 6.4 0.00 0.08 0.00 62 1015.5
20260510074104 17 67 1.6 6.4 0.00 0.08 0.00 62 1015.5
20260510073904 17 73 1.6 8.0 0.00 0.08 0.00 62 1015.5
20260510073804 17 72 1.6 8.0 0.00 0.08 0.00 62 1015.5
20260510073704 17 71 1.6 9.7 0.00 0.08 0.00 61 1015.5
20260510073604 17 71 1.6 9.7 0.00 0.08 0.00 61 1015.5
20260510073504 17 72 1.6 9.7 0.00 0.08 0.00 61 1015.5
20260510073404 17 74 1.6 9.7 0.00 0.08 0.00 61 1015.5
20260510073304 17 74 1.6 9.7 0.00 0.08 0.00 61 1015.5
20260510073204 17 68 1.6 9.7 0.00 0.08 0.00 61 1015.5
20260510073104 17 68 1.6 9.7 0.00 0.08 0.00 61 1015.5
20260510073004 17 68 1.6 9.7 0.00 0.08 0.00 61 1015.5
20260510072804 17 63 1.6 9.7 0.00 0.08 0.00 60 1015.4
20260510072704 17 62 1.6 8.0 0.00 0.08 0.00 61 1015.5
20260510072604 17 59 1.6 8.0 0.00 0.08 0.00 61 1015.5
20260510072404 17 56 1.6 8.0 0.00 0.08 0.00 60 1015.5
20260510072306 17 54 0.0 8.0 0.00 0.08 0.00 60 1015.5
20260510072104 17 57 1.6 8.0 0.00 0.08 0.00 60 1015.6
20260510071904 18 55 1.6 8.0 0.00 0.08 0.00 60 1015.7
20260510071704 18 63 1.6 8.0 0.00 0.08 0.00 60 1015.7
20260510071604 18 65 1.6 8.0 0.00 0.08 0.00 59 1015.6
20260510071504 18 66 1.6 8.0 0.00 0.08 0.00 60 1015.5
20260510071404 18 72 1.6 8.0 0.00 0.08 0.00 59 1015.5
20260510071304 18 72 1.6 8.0 0.00 0.08 0.00 59 1015.5
20260510071104 18 78 1.6 6.4 0.00 0.08 0.00 59 1015.4
20260510071004 18 84 1.6 6.4 0.00 0.08 0.00 58 1015.3
20260510070904 18 92 1.6 9.7 0.00 0.08 0.00 58 1015.3
20260510070804 18 88 1.6 9.7 0.00 0.08 0.00 58 1015.3
20260510070704 18 87 1.6 9.7 0.00 0.08 0.00 58 1015.3
20260510070604 18 88 1.6 9.7 0.00 0.08 0.00 58 1015.3
20260510070504 18 88 1.6 9.7 0.00 0.08 0.00 58 1015.3
20260510070404 18 84 1.6 9.7 0.00 0.08 0.00 58 1015.3
20260510070304 18 85 1.6 9.7 0.00 0.08 0.00 58 1015.3
20260510070204 18 84 3.2 9.7 0.00 0.08 0.00 58 1015.3
20260510070104 18 85 3.2 11.3 0.00 0.08 0.00 58 1015.3
20260510070004 18 84 3.2 11.3 0.00 0.08 0.00 57 1015.3
20260510065904 18 83 3.2 11.3 0.00 0.08 0.00 57 1015.3
20260510065704 18 81 3.2 14.5 0.00 0.08 0.00 57 1015.2
20260510065604 18 79 3.2 14.5 0.00 0.08 0.00 57 1015.2
20260510065504 18 77 3.2 14.5 0.00 0.08 0.00 57 1015.2
20260510065404 18 77 3.2 14.5 0.00 0.08 0.00 57 1015.1
20260510065204 18 74 3.2 14.5 0.00 0.08 0.00 57 1015.1
20260510065104 18 73 3.2 14.5 0.00 0.08 0.00 57 1015.1
20260510064704 18 75 3.2 11.3 0.00 0.08 0.00 57 1015.1
20260510064504 18 78 3.2 11.3 0.00 0.08 0.00 56 1015.1
20260510064404 19 81 3.2 11.3 0.00 0.08 0.00 56 1015.1
20260510064204 19 82 3.2 11.3 0.00 0.08 0.00 56 1015.1
20260510064004 19 84 3.2 11.3 0.00 0.08 0.00 56 1015.0
20260510063904 19 86 3.2 9.7 0.00 0.08 0.00 56 1015.0
20260510063804 19 85 3.2 9.7 0.00 0.08 0.00 56 1014.9
20260510063704 19 85 3.2 9.7 0.00 0.08 0.00 56 1014.9
20260510063604 19 86 3.2 9.7 0.00 0.08 0.00 56 1014.9
20260510063404 19 86 3.2 9.7 0.00 0.08 0.00 56 1014.9
20260510063304 19 87 1.6 9.7 0.00 0.08 0.00 56 1014.9
20260510063204 19 88 1.6 9.7 0.00 0.08 0.00 56 1015.0
20260510063104 19 89 3.2 14.5 0.00 0.08 0.00 56 1015.0
20260510063004 19 85 3.2 14.5 0.00 0.08 0.00 56 1015.0
20260510062904 19 86 3.2 14.5 0.00 0.08 0.00 56 1015.0
20260510062804 19 87 3.2 14.5 0.00 0.08 0.00 56 1014.9
20260510062604 19 84 3.2 14.5 0.00 0.08 0.00 57 1014.9
20260510062504 19 85 3.2 14.5 0.00 0.08 0.00 56 1014.9
20260510062204 19 85 3.2 14.5 0.00 0.08 0.00 56 1014.8
20260510062105 19 84 3.2 14.5 0.00 0.08 0.00 56 1014.8
20260510062004 19 87 3.2 9.7 0.00 0.08 0.00 57 1014.8
20260510061904 19 86 3.2 9.7 0.00 0.08 0.00 56 1014.8
20260510061804 19 86 3.2 9.7 0.00 0.08 0.00 56 1014.8
20260510061605 19 89 3.2 9.7 0.00 0.08 0.00 56 1014.7
20260510061404 19 82 3.2 9.7 0.00 0.08 0.00 57 1014.7
20260510061305 19 84 3.2 9.7 0.00 0.08 0.00 57 1014.8
20260510061204 19 81 3.2 9.7 0.00 0.08 0.00 57 1014.8
20260510061105 19 79 1.6 9.7 0.00 0.08 0.00 57 1014.7
20260510061005 19 76 1.6 9.7 0.00 0.08 0.00 56 1014.7
20260510060904 19 74 1.6 8.0 0.00 0.08 0.00 57 1014.7
20260510060805 19 71 3.2 8.0 0.00 0.08 0.00 57 1014.7
20260510060705 19 74 3.2 16.1 0.00 0.08 0.00 57 1014.6
20260510060604 19 75 3.2 16.1 0.00 0.08 0.00 57 1014.6
20260510060504 19 78 3.2 16.1 0.00 0.08 0.00 57 1014.6
20260510060405 19 81 3.2 16.1 0.00 0.08 0.00 57 1014.6
20260510060305 19 82 3.2 16.1 0.00 0.08 0.00 57 1014.5
20260510060104 19 83 3.2 16.1 0.00 0.08 0.00 57 1014.5
20260510055904 19 82 3.2 16.1 0.00 0.08 0.00 56 1014.3
20260510055804 19 84 3.2 16.1 0.00 0.08 0.00 56 1014.3
20260510055704 19 83 3.2 11.3 0.00 0.08 0.00 57 1014.3
20260510055604 19 85 3.2 11.3 0.00 0.08 0.00 57 1014.3
20260510055504 19 84 3.2 11.3 0.00 0.08 0.00 57 1014.3
20260510055405 19 84 3.2 11.3 0.00 0.08 0.00 56 1014.3
20260510055306 19 85 3.2 11.3 0.00 0.08 0.00 56 1014.3
20260510055205 19 82 3.2 11.3 0.00 0.08 0.00 56 1014.3
20260510055105 19 81 3.2 12.9 0.00 0.08 0.00 56 1014.3
20260510055005 19 83 3.2 12.9 0.00 0.08 0.00 56 1014.2
20260510054904 19 80 3.2 12.9 0.00 0.08 0.00 57 1014.1
20260510054804 19 80 3.2 12.9 0.00 0.08 0.00 56 1014.1
20260510054705 19 78 3.2 12.9 0.00 0.08 0.00 56 1014.1
20260510054605 19 72 3.2 12.9 0.00 0.08 0.00 56 1014.0
20260510054505 19 73 3.2 12.9 0.00 0.08 0.00 56 1013.9
20260510054405 19 72 3.2 12.9 0.00 0.08 0.00 56 1013.9
20260510054304 19 69 3.2 12.9 0.00 0.08 0.00 56 1013.9
20260510054205 19 72 3.2 12.9 0.00 0.08 0.00 57 1013.8
20260510054105 19 73 3.2 8.0 0.00 0.08 0.00 57 1013.8
20260510054004 19 70 3.2 8.0 0.00 0.08 0.00 56 1013.8
20260510053905 19 74 3.2 8.0 0.00 0.08 0.00 56 1013.8
20260510053804 19 74 3.2 8.0 0.00 0.08 0.00 56 1013.8
20260510053705 19 75 3.2 8.0 0.00 0.08 0.00 56 1013.8
20260510053605 20 77 3.2 8.0 0.00 0.08 0.00 56 1013.8
20260510053504 20 72 3.2 9.7 0.00 0.08 0.00 56 1013.8
20260510053404 20 73 3.2 9.7 0.00 0.08 0.00 56 1013.8
20260510053304 20 76 3.2 9.7 0.00 0.08 0.00 56 1013.8
20260510053005 20 72 3.2 9.7 0.00 0.08 0.00 56 1013.8
20260510052904 20 68 3.2 12.9 0.00 0.08 0.00 56 1013.8
20260510052804 20 67 3.2 12.9 0.00 0.08 0.00 56 1013.8
20260510052704 20 67 3.2 12.9 0.00 0.08 0.00 56 1013.8
20260510052604 20 67 3.2 12.9 0.00 0.08 0.00 56 1013.7
20260510052504 20 71 1.6 12.9 0.00 0.08 0.00 56 1013.7
20260510052404 20 66 1.6 12.9 0.00 0.08 0.00 57 1013.8
20260510052306 20 61 3.2 12.9 0.00 0.08 0.00 57 1013.8
20260510052204 20 61 3.2 12.9 0.00 0.08 0.00 56 1013.8
20260510051904 20 56 3.2 11.3 0.00 0.08 0.00 56 1013.8
20260510051704 20 53 3.2 11.3 0.00 0.08 0.00 57 1013.8
20260510051605 20 51 3.2 11.3 0.00 0.08 0.00 57 1013.8
20260510051504 20 52 3.2 11.3 0.00 0.08 0.00 57 1013.8
20260510051404 20 54 3.2 11.3 0.00 0.08 0.00 56 1013.8
20260510051304 20 54 3.2 11.3 0.00 0.08 0.00 56 1013.8
20260510051204 20 51 3.2 11.3 0.00 0.08 0.00 57 1013.7
20260510051104 20 52 3.2 11.3 0.00 0.08 0.00 57 1013.7
20260510051004 20 46 3.2 9.7 0.00 0.08 0.00 57 1013.7
20260510050904 20 38 3.2 9.7 0.00 0.08 0.00 57 1013.7
20260510050805 20 35 3.2 9.7 0.00 0.08 0.00 57 1013.7
20260510050704 20 30 3.2 9.7 0.00 0.08 0.00 57 1013.7
20260510050504 20 26 3.2 9.7 0.00 0.08 0.00 57 1013.7
20260510050305 20 23 3.2 9.7 0.00 0.08 0.00 58 1013.7
20260510050104 20 21 1.6 9.7 0.00 0.08 0.00 58 1013.7
20260510050006 19 23 1.6 9.7 0.00 0.08 0.00 58 1013.6
20260510045804 19 37 1.6 8.0 0.00 0.08 0.08 58 1013.7
20260510045704 19 40 1.6 8.0 0.00 0.08 0.08 59 1013.7
20260510045604 19 39 1.6 11.3 0.00 0.08 0.08 59 1013.7
20260510045204 19 42 1.6 11.3 0.00 0.08 0.08 60 1013.6
20260510044704 19 43 0.0 11.3 0.00 0.08 0.08 59 1013.7
20260510044504 19 45 0.0 3.2 0.00 0.08 0.08 59 1013.6
20260510044404 18 42 0.0 3.2 0.00 0.08 0.08 59 1013.6
20260510044304 18 42 0.0 3.2 0.00 0.08 0.08 59 1013.6
20260510044204 18 31 0.0 3.2 0.00 0.08 0.08 59 1013.5
20260510044104 18 64 0.0 1.6 0.00 0.08 0.08 59 1013.4
20260510044004 18 0 0.0 0.0 0.00 0.08 0.08 60 1013.5
20260510043904 18 0 0.0 0.0 0.00 0.08 0.08 61 1013.5
20260510043804 18 0 0.0 0.0 0.00 0.08 0.08 60 1013.5
20260510043704 18 0 0.0 0.0 0.00 0.08 0.08 61 1013.5
20260510043504 19 0 0.0 0.0 0.00 0.08 0.08 60 1013.5
20260510043404 19 0 0.0 0.0 0.00 0.08 0.08 61 1013.5
20260510043304 19 0 0.0 0.0 0.00 0.08 0.08 60 1013.4
20260510043204 19 0 0.0 0.0 0.00 0.08 0.08 59 1013.4
20260510043104 19 0 0.0 0.0 0.00 0.08 0.08 59 1013.4
20260510042905 19 0 0.0 0.0 0.00 0.08 0.08 59 1013.3
20260510042805 19 0 0.0 0.0 0.00 0.08 0.08 59 1013.4
20260510042705 19 0 0.0 0.0 0.00 0.08 0.08 58 1013.4
20260510042605 19 0 0.0 0.0 0.00 0.08 0.08 58 1013.4
20260510042505 19 0 0.0 0.0 0.00 0.08 0.08 58 1013.4
20260510042405 19 0 0.0 0.0 0.00 0.08 0.08 59 1013.4
20260510042306 19 0 0.0 0.0 0.00 0.08 0.08 59 1013.5
20260510042104 19 0 0.0 0.0 0.00 0.08 0.08 59 1013.5
20260510042005 19 0 0.0 0.0 0.00 0.08 0.08 59 1013.5
20260510041904 19 0 0.0 0.0 0.00 0.08 0.08 59 1013.5
20260510041804 19 0 0.0 0.0 0.00 0.08 0.08 59 1013.5
20260510041704 19 0 0.0 0.0 0.00 0.08 0.08 58 1013.4
20260510041604 19 0 0.0 0.0 0.00 0.08 0.08 60 1013.4
20260510041405 19 0 0.0 0.0 0.00 0.08 0.08 60 1013.4
20260510041305 19 0 0.0 0.0 0.00 0.08 0.08 59 1013.4
20260510041204 19 0 0.0 0.0 0.00 0.08 0.08 57 1013.4
20260510041105 19 0 0.0 0.0 0.00 0.08 0.08 57 1013.3
20260510041005 19 0 0.0 0.0 0.00 0.08 0.08 58 1013.3
20260510040904 19 0 0.0 0.0 0.00 0.08 0.08 58 1013.4
20260510040804 19 0 0.0 0.0 0.00 0.08 0.08 58 1013.4
20260510040705 20 80 0.0 3.2 0.00 0.08 0.08 58 1013.4
20260510040605 20 80 0.0 3.2 0.00 0.08 0.08 58 1013.5
20260510040305 20 60 0.0 3.2 0.00 0.08 0.08 58 1013.5
20260510040205 20 60 0.0 3.2 0.00 0.08 0.08 58 1013.5
20260510040105 19 63 0.0 3.2 0.00 0.08 0.08 58 1013.5
20260510040005 19 64 0.0 3.2 0.00 0.08 0.08 59 1013.5
20260510035905 19 64 0.0 3.2 0.00 0.08 0.08 58 1013.6
20260510035805 19 64 0.0 3.2 0.00 0.08 0.08 58 1013.6
20260510035705 19 58 0.0 3.2 0.00 0.08 0.08 59 1013.6
20260510035504 19 72 0.0 3.2 0.00 0.08 0.08 59 1013.6
20260510035404 19 77 0.0 3.2 0.00 0.08 0.08 58 1013.6
20260510035306 19 119 0.0 1.6 0.00 0.08 0.08 59 1013.5
20260510035204 19 119 0.0 1.6 0.00 0.08 0.08 59 1013.5
20260510035104 20 120 0.0 1.6 0.00 0.08 0.08 59 1013.4
20260510035004 20 0 0.0 0.0 0.00 0.08 0.08 59 1013.4
20260510034904 20 0 0.0 0.0 0.00 0.08 0.08 58 1013.3
20260510034704 20 0 0.0 0.0 0.00 0.08 0.08 58 1013.2
20260510034604 20 0 0.0 0.0 0.00 0.08 0.08 58 1013.2
20260510034405 20 0 0.0 0.0 0.00 0.08 0.08 57 1013.2
20260510034304 20 159 0.0 1.6 0.00 0.08 0.08 57 1013.2
20260510034205 20 159 0.0 1.6 0.00 0.08 0.08 58 1013.3
20260510034005 20 159 0.0 1.6 0.00 0.08 0.08 57 1013.3
20260510033805 20 159 0.0 1.6 0.00 0.08 0.08 56 1013.2
20260510033705 20 159 0.0 1.6 0.00 0.08 0.08 56 1013.3
20260510033605 20 159 0.0 1.6 0.00 0.08 0.08 58 1013.3
20260510033505 20 159 0.0 1.6 0.00 0.08 0.08 56 1013.2
20260510033204 20 0 0.0 0.0 0.00 0.08 0.08 53 1013.1
20260510033104 20 0 0.0 0.0 0.00 0.08 0.08 52 1013.0
20260510033005 20 0 0.0 0.0 0.00 0.08 0.08 52 1012.9
20260510032805 20 0 0.0 0.0 0.00 0.08 0.08 52 1012.9
20260510032705 20 0 0.0 0.0 0.00 0.08 0.08 53 1012.8
20260510032605 20 0 0.0 0.0 0.00 0.08 0.08 53 1012.8
20260510032505 20 0 0.0 0.0 0.00 0.08 0.08 52 1012.8
20260510032405 20 0 0.0 0.0 0.00 0.08 0.08 52 1012.8
20260510032306 20 0 0.0 0.0 0.00 0.08 0.08 52 1012.8
20260510032205 20 0 0.0 0.0 0.00 0.08 0.08 52 1012.8
20260510032105 21 0 0.0 0.0 0.00 0.08 0.08 53 1012.8
20260510032005 21 0 0.0 0.0 0.00 0.08 0.08 53 1012.8
20260510031905 21 0 0.0 0.0 0.00 0.08 0.08 52 1012.7
20260510031805 21 0 0.0 0.0 0.00 0.08 0.08 52 1012.7
20260510031705 21 159 0.0 1.6 0.00 0.08 0.08 51 1012.7
20260510031605 21 159 0.0 1.6 0.00 0.08 0.08 51 1012.7
20260510031505 21 161 0.0 3.2 0.00 0.08 0.08 51 1012.6
20260510031405 21 161 0.0 3.2 0.00 0.08 0.08 51 1012.6
20260510031204 21 160 0.0 3.2 0.00 0.08 0.08 51 1012.5
20260510031104 21 155 0.0 3.2 0.00 0.08 0.08 51 1012.5
20260510031004 21 153 0.0 3.2 0.00 0.08 0.08 51 1012.4
20260510030904 21 154 0.0 4.8 0.00 0.08 0.08 50 1012.4
20260510030804 21 155 1.6 4.8 0.00 0.08 0.08 49 1012.4
20260510030704 21 156 1.6 4.8 0.00 0.08 0.08 49 1012.4
20260510030604 21 157 1.6 4.8 0.00 0.08 0.08 49 1012.4
20260510030504 21 158 1.6 4.8 0.00 0.08 0.08 49 1012.4
20260510030404 21 158 1.6 4.8 0.00 0.08 0.08 49 1012.4
20260510030304 21 158 1.6 4.8 0.00 0.08 0.08 49 1012.4
20260510030204 21 158 1.6 4.8 0.00 0.08 0.08 49 1012.4
20260510030104 21 161 1.6 4.8 0.00 0.08 0.08 50 1012.4
20260510030004 21 161 1.6 4.8 0.00 0.08 0.08 49 1012.4
20260510025904 21 161 1.6 4.8 0.00 0.08 0.08 49 1012.4
20260510025804 21 161 1.6 4.8 0.00 0.08 0.08 49 1012.3
20260510025704 21 158 1.6 4.8 0.00 0.08 0.08 49 1012.4
20260510025604 21 157 1.6 4.8 0.00 0.08 0.08 49 1012.4
20260510025504 21 156 1.6 4.8 0.00 0.08 0.08 49 1012.4
20260510025404 21 155 1.6 4.8 0.00 0.08 0.08 50 1012.4
20260510025204 21 153 1.6 4.8 0.00 0.08 0.08 49 1012.4
20260510025104 21 152 1.6 4.8 0.00 0.08 0.08 50 1012.4
20260510025004 21 153 1.6 4.8 0.03 0.08 0.08 49 1012.4
20260510024904 21 153 1.6 4.8 0.03 0.08 0.08 50 1012.5
20260510024804 21 153 1.6 4.8 0.03 0.08 0.08 50 1012.4
20260510024705 21 155 1.6 3.2 0.03 0.08 0.08 50 1012.4
20260510024605 21 154 1.6 3.2 0.03 0.08 0.08 50 1012.4
20260510024504 21 155 1.6 4.8 0.03 0.08 0.08 50 1012.4
20260510024304 21 156 1.6 4.8 0.03 0.08 0.08 50 1012.4
20260510024204 21 156 1.6 4.8 0.05 0.08 0.08 51 1012.3
20260510024004 21 158 1.6 4.8 0.05 0.08 0.08 51 1012.4
20260510023904 21 160 1.6 4.8 0.05 0.08 0.08 51 1012.4
20260510023804 21 159 1.6 4.8 0.05 0.08 0.08 49 1012.4
20260510023704 21 158 1.6 4.8 0.05 0.08 0.08 51 1012.4
20260510023504 21 158 1.6 4.8 0.05 0.08 0.08 52 1012.3
20260510023404 21 157 1.6 4.8 0.08 0.08 0.08 53 1012.3
20260510023304 21 158 1.6 4.8 0.08 0.08 0.08 53 1012.2
20260510023204 21 158 0.0 4.8 0.08 0.08 0.08 53 1012.2
20260510023104 21 158 0.0 4.8 0.08 0.08 0.08 52 1012.3
20260510022904 21 149 0.0 3.2 0.08 0.08 0.08 53 1012.2
20260510022805 21 148 0.0 3.2 0.08 0.08 0.08 53 1012.2
20260510022605 21 152 0.0 1.6 0.08 0.08 0.08 55 1012.0
20260510022505 21 152 0.0 1.6 0.08 0.08 0.08 54 1012.0
20260510022404 21 148 0.0 3.2 0.08 0.08 0.08 54 1011.9
20260510022306 21 148 0.0 3.2 0.08 0.08 0.08 55 1011.9
20260510022204 21 147 0.0 3.2 0.08 0.08 0.08 54 1011.9
20260510022104 21 147 0.0 3.2 0.08 0.08 0.08 54 1011.9
20260510022004 21 147 0.0 3.2 0.08 0.08 0.08 55 1012.0
20260510021804 21 132 0.0 3.2 0.08 0.08 0.08 54 1011.9
20260510021704 21 131 0.0 3.2 0.08 0.08 0.08 53 1011.9
20260510021605 21 127 0.0 3.2 0.08 0.08 0.08 52 1011.9
20260510021504 21 122 0.0 3.2 0.08 0.08 0.08 52 1012.0
20260510021404 21 117 0.0 3.2 0.08 0.08 0.08 52 1012.1
20260510021205 22 116 0.0 3.2 0.08 0.08 0.08 53 1012.2
20260510021105 22 113 0.0 4.8 0.08 0.08 0.08 52 1012.2
20260510021005 22 116 0.0 4.8 0.08 0.08 0.08 47 1012.2
20260510020905 22 112 1.6 4.8 0.08 0.08 0.08 47 1012.2
20260510020805 22 108 1.6 9.7 0.08 0.08 0.08 42 1012.1
20260510020705 22 108 1.6 9.7 0.08 0.08 0.08 41 1012.2
20260510020605 22 108 1.6 9.7 0.08 0.08 0.08 43 1012.2
20260510020505 22 107 1.6 9.7 0.08 0.08 0.08 44 1012.3
20260510020405 22 104 1.6 9.7 0.08 0.08 0.08 44 1012.3
20260510020305 22 91 1.6 9.7 0.08 0.08 0.08 44 1012.3
20260510020205 22 75 3.2 9.7 0.08 0.08 0.08 43 1012.3
20260510020105 22 23 3.2 16.1 0.08 0.08 0.08 43 1012.4
20260510020005 22 356 4.8 16.1 0.08 0.08 0.08 42 1012.4
20260510015904 22 350 4.8 16.1 0.08 0.08 0.08 46 1012.4
20260510015805 22 347 4.8 16.1 0.08 0.08 0.08 46 1012.4
20260510015705 22 350 4.8 16.1 0.08 0.08 0.08 44 1012.4
20260510015604 22 353 6.4 16.1 0.08 0.08 0.08 45 1012.4
20260510015505 22 352 6.4 16.1 0.08 0.08 0.08 43 1012.4
20260510015405 22 344 6.4 19.3 0.08 0.08 0.08 43 1012.5
20260510015306 22 342 6.4 19.3 0.08 0.08 0.08 43 1012.5
20260510015204 22 338 6.4 19.3 0.08 0.08 0.08 42 1012.4
20260510015104 22 344 4.8 19.3 0.08 0.08 0.08 42 1012.4
20260510015004 23 356 4.8 19.3 0.05 0.05 0.05 44 1012.5
20260510014904 23 1 4.8 19.3 0.05 0.05 0.05 43 1012.5
20260510014804 23 2 4.8 19.3 0.05 0.05 0.05 43 1012.6
20260510014604 23 347 4.8 19.3 0.05 0.05 0.05 42 1012.7
20260510014504 23 349 4.8 19.3 0.05 0.05 0.05 41 1012.8
20260510014404 23 359 6.4 12.9 0.05 0.05 0.05 39 1012.8
20260510014204 24 8 4.8 12.9 0.03 0.03 0.03 40 1012.9
20260510014004 24 354 4.8 14.5 0.03 0.03 0.03 38 1012.9
20260510013804 24 336 6.4 14.5 0.03 0.03 0.03 37 1012.9
20260510013704 25 318 6.4 16.1 0.03 0.03 0.03 38 1012.9
20260510013604 25 315 6.4 16.1 0.03 0.03 0.03 37 1012.9
20260510013504 25 317 6.4 16.1 0.00 0.00 0.00 34 1012.8
20260510013404 25 315 6.4 16.1 0.00 0.00 0.00 36 1012.8
20260510013304 25 313 8.0 20.9 0.00 0.00 0.00 38 1012.8
20260510013204 25 315 8.0 22.5 0.00 0.00 0.00 33 1012.7
20260510013104 25 317 8.0 22.5 0.00 0.00 0.00 33 1012.7
20260510013004 25 319 8.0 22.5 0.00 0.00 0.00 32 1012.6
20260510012904 25 321 8.0 22.5 0.00 0.00 0.00 32 1012.5
20260510012804 25 325 8.0 22.5 0.00 0.00 0.00 32 1012.4
20260510012704 25 334 8.0 22.5 0.00 0.00 0.00 32 1012.3
20260510012604 25 336 6.4 22.5 0.00 0.00 0.00 32 1012.2
20260510012504 25 333 6.4 22.5 0.00 0.00 0.00 31 1012.2
20260510012404 25 328 6.4 22.5 0.00 0.00 0.00 32 1012.1
20260510012306 25 327 4.8 22.5 0.00 0.00 0.00 32 1012.0
20260510012105 26 327 4.8 9.7 0.00 0.00 0.00 33 1012.0
20260510012004 26 331 4.8 9.7 0.00 0.00 0.00 35 1012.0
20260510011904 26 337 4.8 9.7 0.00 0.00 0.00 33 1012.0
20260510011605 26 335 3.2 9.7 0.00 0.00 0.00 33 1011.8
20260510011505 26 338 3.2 9.7 0.00 0.00 0.00 32 1011.8
20260510011405 26 346 1.6 9.7 0.00 0.00 0.00 33 1011.7
20260510011205 26 41 1.6 8.0 0.00 0.00 0.00 32 1011.7
20260510011105 26 90 1.6 4.8 0.00 0.00 0.00 31 1011.6
20260510011005 26 125 0.0 4.8 0.00 0.00 0.00 32 1011.6
20260510010705 26 152 0.0 1.6 0.00 0.00 0.00 30 1011.3
20260510010604 26 151 0.0 1.6 0.00 0.00 0.00 30 1011.2
20260510010504 26 150 0.0 1.6 0.00 0.00 0.00 30 1011.1
20260510010404 26 147 0.0 1.6 0.00 0.00 0.00 30 1011.1
20260510010304 26 147 0.0 1.6 0.00 0.00 0.00 29 1010.9
20260510010204 26 146 0.0 1.6 0.00 0.00 0.00 29 1010.8
20260510010004 26 163 0.0 4.8 0.00 0.00 0.00 29 1010.6
20260510005904 26 168 0.0 4.8 0.00 0.00 0.00 29 1010.6
20260510005804 26 169 0.0 4.8 0.00 0.00 0.00 29 1010.6
20260510005604 26 170 0.0 4.8 0.00 0.00 0.00 28 1010.4
20260510005504 26 167 0.0 4.8 0.00 0.00 0.00 28 1010.3
20260510005404 26 165 0.0 4.8 0.00 0.00 0.00 28 1010.3
20260510005205 26 163 0.0 4.8 0.00 0.00 0.00 27 1010.1
20260510005105 26 157 0.0 3.2 0.00 0.00 0.00 27 1010.1
20260510005005 26 158 0.0 3.2 0.00 0.00 0.00 27 1010.0
20260510004905 26 153 0.0 3.2 0.00 0.00 0.00 27 1010.0
20260510004705 26 143 0.0 3.2 0.00 0.00 0.00 27 1009.8
20260510004604 26 145 0.0 3.2 0.00 0.00 0.00 27 1009.7
20260510004504 26 145 0.0 3.2 0.00 0.00 0.00 26 1009.6
20260510004404 26 144 0.0 3.2 0.00 0.00 0.00 27 1009.6
20260510004304 26 148 0.0 3.2 0.00 0.00 0.00 27 1009.5
20260510004204 26 149 0.0 3.2 0.00 0.00 0.00 27 1009.5
20260510004104 26 151 0.0 3.2 0.00 0.00 0.00 27 1009.4
20260510004005 26 145 0.0 1.6 0.00 0.00 0.00 26 1009.4
20260510003905 27 142 0.0 1.6 0.00 0.00 0.00 27 1009.4
20260510003805 27 139 0.0 1.6 0.00 0.00 0.00 27 1009.3
20260510003705 27 138 0.0 1.6 0.00 0.00 0.00 27 1009.3
20260510003605 27 138 0.0 1.6 0.00 0.00 0.00 27 1009.2
20260510003505 27 137 0.0 1.6 0.00 0.00 0.00 27 1009.2
20260510003405 27 137 0.0 1.6 0.00 0.00 0.00 26 1009.2
20260510003205 27 136 0.0 1.6 0.00 0.00 0.00 26 1009.1
20260510003105 27 135 0.0 1.6 0.00 0.00 0.00 27 1009.1
20260510002904 27 124 0.0 3.2 0.00 0.00 0.00 26 1009.0
20260510002804 27 124 0.0 3.2 0.00 0.00 0.00 26 1008.9
20260510002704 27 124 0.0 3.2 0.00 0.00 0.00 27 1008.9
20260510002604 27 124 0.0 3.2 0.00 0.00 0.00 26 1008.9
20260510002504 27 124 0.0 3.2 0.00 0.00 0.00 26 1008.9
20260510002306 27 131 0.0 4.8 0.00 0.00 0.00 26 1008.8
20260510002204 27 131 0.0 4.8 0.00 0.00 0.00 26 1008.8
20260510002104 27 131 0.0 4.8 0.00 0.00 0.00 26 1008.8
20260510001905 27 135 0.0 4.8 0.00 0.00 0.00 26 1008.8
20260510001805 27 135 0.0 4.8 0.00 0.00 0.00 26 1008.7
20260510001705 27 136 0.0 4.8 0.00 0.00 0.00 25 1008.7
20260510001604 27 137 0.0 4.8 0.00 0.00 0.00 26 1008.8
20260510001504 28 134 0.0 4.8 0.00 0.00 0.00 25 1008.8
20260510001404 28 133 0.0 4.8 0.00 0.00 0.00 24 1008.8
20260510001304 28 130 0.0 4.8 0.00 0.00 0.00 25 1008.8
20260510001204 28 128 0.0 4.8 0.00 0.00 0.00 25 1008.8
20260510001104 28 128 1.6 4.8 0.00 0.00 0.00 25 1008.8
20260510001004 28 125 1.6 4.8 0.00 0.00 0.00 25 1008.8
20260510000904 28 125 1.6 4.8 0.00 0.00 0.00 25 1008.8
20260510000804 28 124 1.6 4.8 0.00 0.00 0.00 25 1008.8
20260510000704 28 124 1.6 4.8 0.00 0.00 0.00 24 1008.7
20260510000504 28 123 1.6 4.8 0.00 0.00 0.00 24 1008.7
20260510000404 28 121 1.6 4.8 0.00 0.00 0.00 24 1008.7
20260510000305 28 120 1.6 4.8 0.00 0.00 0.00 24 1008.7
20260510000204 28 125 1.6 4.8 0.00 0.00 0.00 24 1008.7
20260510000104 28 126 1.6 4.8 0.00 0.00 0.00 24 1008.7
20260510000004 28 132 1.6 8.0 0.00 0.00 0.00 25 1008.7
20260509235904 28 129 1.6 8.0 0.00 0.00 0.00 24 1008.7
20260509235804 28 129 1.6 8.0 0.00 0.00 0.00 24 1008.7
20260509235704 28 129 1.6 8.0 0.00 0.00 0.00 25 1008.7
20260509235604 28 130 1.6 8.0 0.00 0.00 0.00 24 1008.7
20260509235504 28 127 1.6 8.0 0.00 0.00 0.00 24 1008.7
20260509235307 29 125 1.6 8.0 0.00 0.00 0.00 23 1008.7
20260509235204 29 120 1.6 8.0 0.00 0.00 0.00 24 1008.7
20260509235004 29 118 1.6 8.0 0.00 0.00 0.00 24 1008.7
20260509234904 29 120 1.6 8.0 0.00 0.00 0.00 24 1008.7
20260509234804 29 122 1.6 8.0 0.00 0.00 0.00 24 1008.7
20260509234704 29 122 3.2 8.0 0.00 0.00 0.00 24 1008.7
20260509234604 29 123 3.2 8.0 0.00 0.00 0.00 23 1008.7
20260509234504 29 123 3.2 8.0 0.00 0.00 0.00 23 1008.7
20260509234404 29 133 3.2 9.7 0.00 0.00 0.00 23 1008.7
20260509234305 29 137 3.2 9.7 0.00 0.00 0.00 23 1008.7
20260509234205 29 140 3.2 9.7 0.00 0.00 0.00 23 1008.7
20260509234105 29 141 3.2 9.7 0.00 0.00 0.00 23 1008.7
20260509234005 29 143 3.2 9.7 0.00 0.00 0.00 22 1008.7
20260509233905 29 146 3.2 9.7 0.00 0.00 0.00 23 1008.7
20260509233805 29 156 3.2 11.3 0.00 0.00 0.00 23 1008.8
20260509233605 30 162 3.2 11.3 0.00 0.00 0.00 22 1008.8
20260509233505 30 164 3.2 11.3 0.00 0.00 0.00 25 1008.9
20260509233405 30 161 3.2 11.3 0.00 0.00 0.00 23 1008.8
20260509233305 30 156 3.2 11.3 0.00 0.00 0.00 23 1008.8
20260509233205 29 154 1.6 11.3 0.00 0.00 0.00 23 1008.9
20260509233105 29 156 3.2 11.3 0.00 0.00 0.00 23 1008.9
20260509233005 29 154 3.2 11.3 0.00 0.00 0.00 22 1008.9
20260509232905 29 154 3.2 11.3 0.00 0.00 0.00 23 1008.9
20260509232805 29 146 1.6 11.3 0.00 0.00 0.00 23 1008.9
20260509232705 29 136 1.6 11.3 0.00 0.00 0.00 22 1008.9
20260509232605 29 137 3.2 11.3 0.00 0.00 0.00 24 1009.0
20260509232204 29 157 3.2 12.9 0.00 0.00 0.00 23 1008.9
20260509232104 29 157 4.8 12.9 0.00 0.00 0.00 23 1008.9
20260509232004 30 164 4.8 12.9 0.00 0.00 0.00 23 1008.9
20260509231904 30 167 3.2 12.9 0.00 0.00 0.00 23 1009.0
20260509231804 30 169 4.8 12.9 0.00 0.00 0.00 23 1009.0
20260509231504 30 173 4.8 12.9 0.00 0.00 0.00 22 1009.0
20260509231404 30 174 4.8 12.9 0.00 0.00 0.00 23 1009.0
20260509231304 30 174 4.8 11.3 0.00 0.00 0.00 23 1009.0
20260509231204 30 177 4.8 11.3 0.00 0.00 0.00 22 1009.0
20260509231104 30 183 4.8 11.3 0.00 0.00 0.00 22 1009.1
20260509231004 30 184 4.8 11.3 0.00 0.00 0.00 24 1009.1
20260509230904 30 184 4.8 11.3 0.00 0.00 0.00 22 1009.1
20260509230804 30 185 4.8 11.3 0.00 0.00 0.00 22 1009.1
20260509230704 30 184 4.8 11.3 0.00 0.00 0.00 23 1009.1
20260509230604 30 186 4.8 11.3 0.00 0.00 0.00 23 1009.1
20260509230504 30 185 4.8 11.3 0.00 0.00 0.00 23 1009.2
20260509230404 30 185 4.8 11.3 0.00 0.00 0.00 23 1009.2
20260509230304 30 184 4.8 11.3 0.00 0.00 0.00 22 1009.2
20260509230204 30 183 4.8 11.3 0.00 0.00 0.00 22 1009.1
20260509230005 30 174 3.2 9.7 0.00 0.00 0.00 22 1009.1
20260509225905 30 174 3.2 9.7 0.00 0.00 0.00 22 1009.1
20260509225804 30 172 3.2 9.7 0.00 0.00 0.00 23 1009.0
20260509225705 30 172 3.2 9.7 0.00 0.00 0.00 22 1009.1
20260509225605 30 172 3.2 9.7 0.00 0.00 0.00 22 1009.1
20260509225505 30 177 3.2 11.3 0.00 0.00 0.00 22 1009.0
20260509225306 30 168 3.2 11.3 0.00 0.00 0.00 23 1009.0
20260509225205 30 167 3.2 11.3 0.00 0.00 0.00 23 1009.0
20260509225105 30 164 3.2 11.3 0.00 0.00 0.00 22 1009.0
20260509225005 30 161 3.2 11.3 0.00 0.00 0.00 23 1009.0
20260509224905 30 157 4.8 11.3 0.00 0.00 0.00 23 1009.0
20260509224805 30 154 4.8 11.3 0.00 0.00 0.00 21 1009.0
20260509224705 30 150 4.8 11.3 0.00 0.00 0.00 22 1009.0
20260509224504 30 133 3.2 9.7 0.00 0.00 0.00 23 1008.9
20260509224404 30 131 3.2 9.7 0.00 0.00 0.00 21 1009.0
20260509224304 30 128 3.2 8.0 0.00 0.00 0.00 22 1008.9
20260509224204 30 127 3.2 8.0 0.00 0.00 0.00 22 1008.9
20260509224104 30 128 3.2 8.0 0.00 0.00 0.00 22 1008.9
20260509224004 30 130 3.2 8.0 0.00 0.00 0.00 22 1008.9
20260509223904 30 127 1.6 8.0 0.00 0.00 0.00 21 1008.9
20260509223804 30 128 1.6 8.0 0.00 0.00 0.00 21 1008.9
20260509223704 30 127 1.6 8.0 0.00 0.00 0.00 22 1008.9
20260509223604 30 136 3.2 8.0 0.00 0.00 0.00 22 1008.9
20260509223404 30 153 3.2 11.3 0.00 0.00 0.00 22 1008.9
20260509223304 30 155 3.2 11.3 0.00 0.00 0.00 22 1008.9
20260509223204 30 159 3.2 11.3 0.00 0.00 0.00 22 1008.9
20260509223104 30 160 4.8 11.3 0.00 0.00 0.00 21 1008.9
20260509223004 30 161 4.8 11.3 0.00 0.00 0.00 21 1008.9
20260509222904 30 164 4.8 11.3 0.00 0.00 0.00 23 1008.9
20260509222704 30 173 4.8 12.9 0.00 0.00 0.00 22 1008.9
20260509222604 30 172 4.8 12.9 0.00 0.00 0.00 21 1009.0
20260509222504 30 171 4.8 12.9 0.00 0.00 0.00 23 1008.9
20260509222404 30 171 4.8 12.9 0.00 0.00 0.00 22 1008.9
20260509222307 30 172 4.8 12.9 0.00 0.00 0.00 22 1008.9
20260509222204 30 173 4.8 12.9 0.00 0.00 0.00 21 1008.9
20260509222104 30 174 4.8 12.9 0.00 0.00 0.00 22 1008.8
20260509221804 30 186 4.8 9.7 0.00 0.00 0.00 22 1008.8
20260509221704 30 191 4.8 14.5 0.00 0.00 0.00 22 1008.8
20260509221604 30 193 4.8 14.5 0.00 0.00 0.00 22 1008.9
20260509221504 30 195 4.8 14.5 0.00 0.00 0.00 23 1008.9
20260509221404 30 196 4.8 14.5 0.00 0.00 0.00 23 1008.9
20260509221304 30 192 4.8 14.5 0.00 0.00 0.00 21 1008.9
20260509221205 30 190 4.8 14.5 0.00 0.00 0.00 22 1008.8
20260509221005 30 191 4.8 14.5 0.00 0.00 0.00 22 1008.8
20260509220905 30 191 3.2 14.5 0.00 0.00 0.00 22 1008.8
20260509220805 30 178 3.2 14.5 0.00 0.00 0.00 21 1008.9
20260509220705 30 165 3.2 9.7 0.00 0.00 0.00 21 1008.8
20260509220605 30 162 3.2 9.7 0.00 0.00 0.00 21 1008.9
20260509220505 30 166 3.2 11.3 0.00 0.00 0.00 21 1008.9
20260509220405 30 167 3.2 11.3 0.00 0.00 0.00 22 1008.8
20260509220305 30 172 3.2 11.3 0.00 0.00 0.00 23 1008.9
20260509220205 30 173 3.2 11.3 0.00 0.00 0.00 23 1008.8
20260509220105 30 177 3.2 11.3 0.00 0.00 0.00 23 1008.8
20260509220005 30 175 3.2 11.3 0.00 0.00 0.00 22 1008.8
20260509215805 31 175 3.2 11.3 0.00 0.00 0.00 23 1008.8
20260509215705 31 179 3.2 11.3 0.00 0.00 0.00 22 1008.8
20260509215605 31 176 1.6 11.3 0.00 0.00 0.00 21 1008.7
20260509215505 31 164 1.6 6.4 0.00 0.00 0.00 23 1008.8
20260509215404 31 162 3.2 6.4 0.00 0.00 0.00 23 1008.8
20260509215306 31 157 3.2 6.4 0.00 0.00 0.00 23 1008.8
20260509215204 31 166 3.2 12.9 0.00 0.00 0.00 24 1008.8
20260509215104 30 168 3.2 12.9 0.00 0.00 0.00 22 1008.8
20260509215004 30 164 3.2 12.9 0.00 0.00 0.00 22 1008.7
20260509214804 30 167 3.2 12.9 0.00 0.00 0.00 21 1008.8
20260509214704 30 169 4.8 12.9 0.00 0.00 0.00 22 1008.7
20260509214604 30 177 4.8 12.9 0.00 0.00 0.00 21 1008.7
20260509214404 30 183 4.8 12.9 0.00 0.00 0.00 22 1008.7
20260509214304 30 184 4.8 14.5 0.00 0.00 0.00 21 1008.7
20260509214204 30 181 4.8 14.5 0.00 0.00 0.00 23 1008.8
20260509214104 30 175 4.8 14.5 0.00 0.00 0.00 21 1008.8
20260509214004 30 174 4.8 14.5 0.00 0.00 0.00 20 1008.8
20260509213904 30 173 4.8 14.5 0.00 0.00 0.00 21 1008.8
20260509213804 30 168 3.2 14.5 0.00 0.00 0.00 20 1008.8
20260509213704 31 166 3.2 14.5 0.00 0.00 0.00 21 1008.8
20260509213604 31 157 3.2 14.5 0.00 0.00 0.00 22 1008.8
20260509213504 31 137 3.2 14.5 0.00 0.00 0.00 23 1008.8
20260509213404 31 148 3.2 14.5 0.00 0.00 0.00 22 1008.8
20260509213304 31 164 3.2 11.3 0.00 0.00 0.00 22 1008.7
20260509213104 30 168 3.2 11.3 0.00 0.00 0.00 23 1008.8
20260509213004 30 173 3.2 11.3 0.00 0.00 0.00 22 1008.8
20260509212904 30 172 3.2 11.3 0.00 0.00 0.00 22 1008.8
20260509212804 30 171 4.8 11.3 0.00 0.00 0.00 22 1008.8
20260509212704 30 171 4.8 11.3 0.00 0.00 0.00 22 1008.8
20260509212504 30 177 4.8 12.9 0.00 0.00 0.00 20 1008.8
20260509212404 30 182 4.8 19.3 0.00 0.00 0.00 21 1008.9
20260509212306 30 174 4.8 19.3 0.00 0.00 0.00 22 1008.9
20260509212205 30 170 4.8 19.3 0.00 0.00 0.00 21 1008.9
20260509212104 30 173 4.8 19.3 0.00 0.00 0.00 21 1009.0
20260509212005 30 171 4.8 19.3 0.00 0.00 0.00 23 1009.0
20260509211904 30 179 4.8 19.3 0.00 0.00 0.00 22 1009.0
20260509211804 30 182 3.2 19.3 0.00 0.00 0.00 22 1009.0
20260509211704 30 181 3.2 19.3 0.00 0.00 0.00 21 1009.1
20260509211604 31 179 3.2 19.3 0.00 0.00 0.00 22 1009.1
20260509211505 31 179 3.2 19.3 0.00 0.00 0.00 21 1009.1
20260509211404 31 164 3.2 9.7 0.00 0.00 0.00 23 1009.2
20260509211204 31 179 3.2 11.3 0.00 0.00 0.00 23 1009.1
20260509211104 30 179 3.2 11.3 0.00 0.00 0.00 23 1009.2
20260509211005 30 179 3.2 11.3 0.00 0.00 0.00 22 1009.2
20260509210905 30 173 3.2 11.3 0.00 0.00 0.00 23 1009.2
20260509210804 30 173 4.8 11.3 0.00 0.00 0.00 23 1009.2
20260509210704 30 175 4.8 12.9 0.00 0.00 0.00 22 1009.2
20260509210504 30 170 4.8 12.9 0.00 0.00 0.00 23 1009.2
20260509210404 30 172 4.8 12.9 0.00 0.00 0.00 22 1009.3
20260509210304 31 168 4.8 12.9 0.00 0.00 0.00 24 1009.4
20260509210204 30 158 4.8 12.9 0.00 0.00 0.00 22 1009.3
20260509210004 30 153 4.8 12.9 0.00 0.00 0.00 23 1009.3
20260509205904 30 153 4.8 12.9 0.00 0.00 0.00 24 1009.4
20260509205805 30 152 3.2 12.9 0.00 0.00 0.00 23 1009.3
20260509205704 30 146 4.8 12.9 0.00 0.00 0.00 23 1009.3
20260509205604 30 155 4.8 12.9 0.00 0.00 0.00 23 1009.4
20260509205505 30 161 4.8 12.9 0.00 0.00 0.00 22 1009.3
20260509205405 30 156 4.8 12.9 0.00 0.00 0.00 22 1009.4
20260509205307 30 152 4.8 12.9 0.00 0.00 0.00 21 1009.4
20260509205205 30 154 4.8 12.9 0.00 0.00 0.00 23 1009.4
20260509205105 30 151 4.8 12.9 0.00 0.00 0.00 22 1009.3
20260509205005 30 150 4.8 12.9 0.00 0.00 0.00 23 1009.4
20260509204905 30 148 4.8 12.9 0.00 0.00 0.00 21 1009.3
20260509204805 30 149 4.8 12.9 0.00 0.00 0.00 20 1009.4
20260509204605 30 147 4.8 11.3 0.00 0.00 0.00 22 1009.4
20260509204404 30 160 6.4 16.1 0.00 0.00 0.00 21 1009.4
20260509204304 30 166 6.4 20.9 0.00 0.00 0.00 22 1009.4
20260509204104 30 173 6.4 20.9 0.00 0.00 0.00 22 1009.5
20260509204004 30 175 6.4 20.9 0.00 0.00 0.00 24 1009.5
20260509203904 30 174 4.8 20.9 0.00 0.00 0.00 24 1009.5
20260509203804 30 172 4.8 20.9 0.00 0.00 0.00 23 1009.5
20260509203704 30 170 4.8 20.9 0.00 0.00 0.00 22 1009.4
20260509203604 30 173 4.8 20.9 0.00 0.00 0.00 21 1009.5
20260509203504 30 169 3.2 20.9 0.00 0.00 0.00 23 1009.5
20260509203404 31 161 3.2 20.9 0.00 0.00 0.00 22 1009.4
20260509203304 31 159 3.2 11.3 0.00 0.00 0.00 23 1009.5
20260509203204 31 155 3.2 8.0 0.00 0.00 0.00 23 1009.5
20260509203104 31 153 3.2 8.0 0.00 0.00 0.00 21 1009.4
20260509203004 31 150 3.2 8.0 0.00 0.00 0.00 21 1009.5
20260509202905 31 151 3.2 8.0 0.00 0.00 0.00 21 1009.5
20260509202804 31 160 3.2 9.7 0.00 0.00 0.00 24 1009.6
20260509202704 31 176 3.2 20.9 0.00 0.00 0.00 21 1009.6
20260509202605 31 177 4.8 20.9 0.00 0.00 0.00 23 1009.6
20260509202505 31 175 4.8 20.9 0.00 0.00 0.00 21 1009.5
20260509202405 31 177 3.2 20.9 0.00 0.00 0.00 21 1009.6
20260509202306 31 174 3.2 20.9 0.00 0.00 0.00 22 1009.6
20260509202204 31 173 4.8 20.9 0.00 0.00 0.00 21 1009.6
20260509202004 31 178 3.2 20.9 0.00 0.00 0.00 22 1009.7
20260509201904 31 184 3.2 20.9 0.00 0.00 0.00 21 1009.6
20260509201804 31 183 3.2 20.9 0.00 0.00 0.00 21 1009.6
20260509201704 31 181 3.2 12.9 0.00 0.00 0.00 20 1009.6
20260509201604 31 176 3.2 8.0 0.00 0.00 0.00 23 1009.7
20260509201505 31 177 3.2 8.0 0.00 0.00 0.00 22 1009.6
20260509201405 31 174 3.2 8.0 0.00 0.00 0.00 22 1009.7
20260509201305 31 176 3.2 8.0 0.00 0.00 0.00 22 1009.6
20260509201204 31 176 3.2 8.0 0.00 0.00 0.00 23 1009.7
20260509201104 31 174 3.2 8.0 0.00 0.00 0.00 22 1009.7
20260509201004 31 169 3.2 8.0 0.00 0.00 0.00 22 1009.7
20260509200904 31 165 3.2 8.0 0.00 0.00 0.00 22 1009.7
20260509200804 31 166 3.2 8.0 0.00 0.00 0.00 24 1009.7
20260509200704 31 173 3.2 9.7 0.00 0.00 0.00 22 1009.7
20260509200604 31 174 3.2 11.3 0.00 0.00 0.00 23 1009.8
20260509200504 31 172 3.2 11.3 0.00 0.00 0.00 21 1009.8
20260509200304 30 176 3.2 11.3 0.00 0.00 0.00 23 1009.8
20260509200204 30 174 3.2 11.3 0.00 0.00 0.00 22 1009.8
20260509200104 30 176 4.8 11.3 0.00 0.00 0.00 21 1009.9
20260509200004 30 179 4.8 11.3 0.00 0.00 0.00 20 1009.8
20260509195904 30 183 4.8 11.3 0.00 0.00 0.00 21 1009.8
20260509195704 30 187 3.2 11.3 0.00 0.00 0.00 21 1009.8
20260509195604 30 199 3.2 8.0 0.00 0.00 0.00 23 1009.8
20260509195404 30 219 4.8 8.0 0.00 0.00 0.00 23 1009.8
20260509195306 30 217 4.8 8.0 0.00 0.00 0.00 23 1009.8
20260509195204 30 228 3.2 8.0 0.00 0.00 0.00 22 1009.9
20260509195105 30 235 3.2 8.0 0.00 0.00 0.00 22 1009.9
20260509194904 30 244 3.2 8.0 0.00 0.00 0.00 22 1009.9
20260509194804 30 233 3.2 8.0 0.00 0.00 0.00 21 1010.0
20260509194704 30 225 3.2 8.0 0.00 0.00 0.00 24 1010.0
20260509194604 30 207 3.2 9.7 0.00 0.00 0.00 23 1010.0
20260509194504 30 197 3.2 9.7 0.00 0.00 0.00 24 1010.1
20260509194404 30 186 3.2 9.7 0.00 0.00 0.00 24 1010.1
20260509194304 30 182 3.2 11.3 0.00 0.00 0.00 23 1010.1
20260509194104 30 167 3.2 11.3 0.00 0.00 0.00 24 1010.1
20260509193904 30 164 3.2 11.3 0.00 0.00 0.00 24 1010.2
20260509193704 30 175 3.2 11.3 0.00 0.00 0.00 23 1010.1
20260509193604 30 177 3.2 11.3 0.00 0.00 0.00 22 1010.1
20260509193504 30 173 3.2 11.3 0.00 0.00 0.00 23 1010.2
20260509193404 30 181 3.2 11.3 0.00 0.00 0.00 22 1010.2
20260509193304 30 186 3.2 8.0 0.00 0.00 0.00 23 1010.2
20260509193205 30 193 3.2 8.0 0.00 0.00 0.00 25 1010.2
20260509193105 30 197 3.2 8.0 0.00 0.00 0.00 23 1010.2
20260509193004 30 201 3.2 8.0 0.00 0.00 0.00 22 1010.2
20260509192904 30 202 4.8 8.0 0.00 0.00 0.00 24 1010.2
20260509192804 30 206 4.8 8.0 0.00 0.00 0.00 21 1010.2